| time (UTC) | temp F | wind direction | speed knots | gust knots | rain 1hr in | rain 24hr in | rain mn in | humidity % | barometer mb |
| 20260506191936 | 76 | 5 | 0.9 | 6.1 | 0.00 | 0.00 | 0.00 | 26 | 920.3 |
| 20260506191827 | 76 | 232 | 0.9 | 6.1 | 0.00 | 0.00 | 0.00 | 26 | 920.3 |
| 20260506191723 | 76 | 265 | 1.7 | 6.1 | 0.00 | 0.00 | 0.00 | 26 | 920.4 |
| 20260506191615 | 76 | 293 | 1.7 | 6.1 | 0.00 | 0.00 | 0.00 | 26 | 920.4 |
| 20260506191509 | 76 | 334 | 1.7 | 6.1 | 0.00 | 0.00 | 0.00 | 27 | 920.4 |
| 20260506191405 | 76 | 313 | 1.7 | 6.1 | 0.00 | 0.00 | 0.00 | 26 | 920.4 |
| 20260506191301 | 76 | 140 | 1.7 | 6.1 | 0.00 | 0.00 | 0.00 | 26 | 920.4 |
| 20260506191154 | 76 | 82 | 1.7 | 6.1 | 0.00 | 0.00 | 0.00 | 26 | 920.4 |
| 20260506191047 | 76 | 82 | 1.7 | 6.1 | 0.00 | 0.00 | 0.00 | 26 | 920.5 |
| 20260506190941 | 76 | 355 | 1.7 | 6.1 | 0.00 | 0.00 | 0.00 | 26 | 920.5 |
| 20260506190838 | 76 | 355 | 1.7 | 6.1 | 0.00 | 0.00 | 0.00 | 26 | 920.5 |
| 20260506190732 | 76 | 319 | 1.7 | 6.1 | 0.00 | 0.00 | 0.00 | 26 | 920.5 |
| 20260506190408 | 77 | 22 | 0.9 | 5.2 | 0.00 | 0.00 | 0.00 | 26 | 920.5 |
| 20260506190303 | 77 | 25 | 0.9 | 5.2 | 0.00 | 0.00 | 0.00 | 26 | 920.5 |
| 20260506190156 | 77 | 279 | 0.9 | 5.2 | 0.00 | 0.00 | 0.00 | 26 | 920.6 |
| 20260506190052 | 77 | 355 | 0.9 | 5.2 | 0.00 | 0.00 | 0.00 | 26 | 920.6 |
| 20260506185945 | 77 | 340 | 0.9 | 5.2 | 0.00 | 0.00 | 0.00 | 27 | 920.6 |
| 20260506185842 | 77 | 284 | 0.9 | 5.2 | 0.00 | 0.00 | 0.00 | 26 | 920.6 |
| 20260506185736 | 77 | 49 | 0.9 | 5.2 | 0.00 | 0.00 | 0.00 | 26 | 920.6 |
| 20260506185633 | 77 | 26 | 0.9 | 7.8 | 0.00 | 0.00 | 0.00 | 25 | 920.7 |
| 20260506185528 | 77 | 5 | 0.9 | 7.8 | 0.00 | 0.00 | 0.00 | 25 | 920.7 |
| 20260506185425 | 77 | 331 | 0.9 | 7.8 | 0.00 | 0.00 | 0.00 | 26 | 920.7 |
| 20260506185320 | 77 | 26 | 0.9 | 7.8 | 0.00 | 0.00 | 0.00 | 26 | 920.7 |
| 20260506185213 | 77 | 252 | 0.9 | 7.8 | 0.00 | 0.00 | 0.00 | 26 | 920.7 |
| 20260506185110 | 77 | 355 | 1.7 | 7.8 | 0.00 | 0.00 | 0.00 | 26 | 920.7 |
| 20260506185007 | 77 | 271 | 1.7 | 7.8 | 0.00 | 0.00 | 0.00 | 26 | 920.7 |
| 20260506184903 | 77 | 268 | 1.7 | 7.8 | 0.00 | 0.00 | 0.00 | 26 | 920.7 |
| 20260506184540 | 77 | 225 | 1.7 | 7.8 | 0.00 | 0.00 | 0.00 | 26 | 920.8 |
| 20260506183958 | 77 | 209 | 0.9 | 7.8 | 0.00 | 0.00 | 0.00 | 26 | 920.8 |
| 20260506183854 | 77 | 313 | 0.9 | 7.8 | 0.00 | 0.00 | 0.00 | 27 | 920.8 |
| 20260506183747 | 76 | 225 | 0.0 | 7.8 | 0.00 | 0.00 | 0.00 | 26 | 920.8 |
| 20260506183641 | 76 | 213 | 0.0 | 5.2 | 0.00 | 0.00 | 0.00 | 27 | 920.8 |
| 20260506183539 | 76 | 248 | 0.0 | 1.7 | 0.00 | 0.00 | 0.00 | 26 | 920.8 |
| 20260506183434 | 76 | 248 | 0.0 | 1.7 | 0.00 | 0.00 | 0.00 | 27 | 920.9 |
| 20260506183329 | 76 | 228 | 0.0 | 1.7 | 0.00 | 0.00 | 0.00 | 27 | 920.8 |
| 20260506183227 | 75 | 221 | 0.0 | 1.7 | 0.00 | 0.00 | 0.00 | 27 | 920.9 |
| 20260506183123 | 75 | 72 | 0.0 | 5.2 | 0.00 | 0.00 | 0.00 | 27 | 920.9 |
| 20260506183019 | 75 | 55 | 0.0 | 5.2 | 0.00 | 0.00 | 0.00 | 27 | 920.9 |
| 20260506182650 | 75 | 166 | 0.9 | 5.2 | 0.00 | 0.00 | 0.00 | 27 | 920.8 |
| 20260506182542 | 75 | 190 | 0.9 | 5.2 | 0.00 | 0.00 | 0.00 | 28 | 920.9 |
| 20260506182437 | 75 | 184 | 0.9 | 5.2 | 0.00 | 0.00 | 0.00 | 28 | 920.9 |
| 20260506182331 | 74 | 103 | 0.9 | 5.2 | 0.00 | 0.00 | 0.00 | 27 | 920.9 |
| 20260506182225 | 74 | 105 | 0.9 | 5.2 | 0.00 | 0.00 | 0.00 | 27 | 920.9 |
| 20260506182121 | 74 | 113 | 0.9 | 5.2 | 0.00 | 0.00 | 0.00 | 27 | 920.9 |
| 20260506182013 | 74 | 107 | 0.9 | 5.2 | 0.00 | 0.00 | 0.00 | 27 | 920.8 |
| 20260506181909 | 74 | 184 | 1.7 | 5.2 | 0.00 | 0.00 | 0.00 | 28 | 920.9 |
| 20260506181752 | 74 | 200 | 0.9 | 5.2 | 0.00 | 0.00 | 0.00 | 28 | 920.9 |
| 20260506181644 | 74 | 163 | 1.7 | 5.2 | 0.00 | 0.00 | 0.00 | 28 | 920.9 |
| 20260506181535 | 74 | 213 | 1.7 | 5.2 | 0.00 | 0.00 | 0.00 | 28 | 920.9 |
| 20260506181430 | 74 | 223 | 1.7 | 5.2 | 0.00 | 0.00 | 0.00 | 28 | 921.0 |
| 20260506181323 | 74 | 223 | 1.7 | 5.2 | 0.00 | 0.00 | 0.00 | 28 | 920.9 |
| 20260506181218 | 74 | 230 | 0.9 | 5.2 | 0.00 | 0.00 | 0.00 | 27 | 921.0 |
| 20260506181112 | 74 | 234 | 0.9 | 4.3 | 0.00 | 0.00 | 0.00 | 28 | 920.9 |
| 20260506181006 | 74 | 267 | 1.7 | 4.3 | 0.00 | 0.00 | 0.00 | 28 | 920.9 |
| 20260506180419 | 74 | 333 | 0.9 | 3.5 | 0.00 | 0.00 | 0.00 | 28 | 920.9 |
| 20260506180312 | 74 | 228 | 0.9 | 4.3 | 0.00 | 0.00 | 0.00 | 28 | 921.0 |
| 20260506175948 | 73 | 195 | 0.9 | 4.3 | 0.00 | 0.00 | 0.00 | 29 | 921.0 |
| 20260506175843 | 73 | 264 | 0.9 | 4.3 | 0.00 | 0.00 | 0.00 | 29 | 921.0 |
| 20260506175739 | 73 | 182 | 0.9 | 4.3 | 0.00 | 0.00 | 0.00 | 28 | 921.0 |
| 20260506175632 | 73 | 163 | 0.9 | 4.3 | 0.00 | 0.00 | 0.00 | 28 | 921.0 |
| 20260506175527 | 73 | 163 | 0.9 | 4.3 | 0.00 | 0.00 | 0.00 | 28 | 921.1 |
| 20260506175425 | 73 | 223 | 0.9 | 4.3 | 0.00 | 0.00 | 0.00 | 29 | 921.1 |
| 20260506175320 | 73 | 238 | 0.9 | 4.3 | 0.00 | 0.00 | 0.00 | 28 | 921.1 |
| 20260506175218 | 73 | 227 | 0.9 | 4.3 | 0.00 | 0.00 | 0.00 | 29 | 921.1 |
| 20260506175111 | 73 | 275 | 1.7 | 4.3 | 0.00 | 0.00 | 0.00 | 28 | 921.1 |
| 20260506175004 | 73 | 236 | 1.7 | 4.3 | 0.00 | 0.00 | 0.00 | 29 | 921.2 |
| 20260506174902 | 73 | 273 | 1.7 | 4.3 | 0.00 | 0.00 | 0.00 | 29 | 921.1 |
| 20260506174758 | 73 | 275 | 1.7 | 4.3 | 0.00 | 0.00 | 0.00 | 29 | 921.1 |
| 20260506174654 | 73 | 248 | 1.7 | 4.3 | 0.00 | 0.00 | 0.00 | 29 | 921.1 |
| 20260506174333 | 72 | 233 | 1.7 | 4.3 | 0.00 | 0.00 | 0.00 | 29 | 921.1 |
| 20260506174226 | 72 | 243 | 1.7 | 4.3 | 0.00 | 0.00 | 0.00 | 29 | 921.1 |
| 20260506174120 | 72 | 246 | 0.9 | 4.3 | 0.00 | 0.00 | 0.00 | 29 | 921.1 |
| 20260506173758 | 72 | 284 | 0.9 | 4.3 | 0.00 | 0.00 | 0.00 | 29 | 921.1 |
| 20260506173650 | 72 | 209 | 0.9 | 4.3 | 0.00 | 0.00 | 0.00 | 29 | 921.1 |
| 20260506173326 | 72 | 250 | 0.9 | 4.3 | 0.00 | 0.00 | 0.00 | 29 | 921.1 |
| 20260506173222 | 72 | 250 | 0.9 | 4.3 | 0.00 | 0.00 | 0.00 | 29 | 921.1 |
| 20260506173115 | 72 | 246 | 0.9 | 4.3 | 0.00 | 0.00 | 0.00 | 29 | 921.1 |
| 20260506173008 | 72 | 215 | 0.9 | 4.3 | 0.00 | 0.00 | 0.00 | 29 | 921.1 |
| 20260506172904 | 72 | 154 | 0.9 | 4.3 | 0.00 | 0.00 | 0.00 | 30 | 921.0 |
| 20260506172759 | 72 | 310 | 0.9 | 4.3 | 0.00 | 0.00 | 0.00 | 29 | 921.0 |
| 20260506172428 | 71 | 262 | 0.0 | 4.3 | 0.00 | 0.00 | 0.00 | 30 | 921.0 |
| 20260506172058 | 71 | 229 | 0.0 | 3.5 | 0.00 | 0.00 | 0.00 | 30 | 921.0 |
| 20260506171951 | 71 | 200 | 0.0 | 3.5 | 0.00 | 0.00 | 0.00 | 30 | 920.9 |
| 20260506171844 | 71 | 169 | 0.0 | 3.5 | 0.00 | 0.00 | 0.00 | 30 | 921.0 |
| 20260506171737 | 71 | 158 | 0.0 | 3.5 | 0.00 | 0.00 | 0.00 | 30 | 920.9 |
| 20260506171629 | 71 | 153 | 0.9 | 3.5 | 0.00 | 0.00 | 0.00 | 30 | 920.9 |
| 20260506171304 | 71 | 178 | 0.9 | 3.5 | 0.00 | 0.00 | 0.00 | 30 | 921.0 |
| 20260506170942 | 71 | 192 | 0.9 | 3.5 | 0.00 | 0.00 | 0.00 | 30 | 920.9 |
| 20260506170836 | 71 | 151 | 0.9 | 3.5 | 0.00 | 0.00 | 0.00 | 30 | 920.9 |
| 20260506170730 | 71 | 129 | 0.0 | 3.5 | 0.00 | 0.00 | 0.00 | 30 | 920.9 |
| 20260506170627 | 71 | 147 | 0.0 | 3.5 | 0.00 | 0.00 | 0.00 | 31 | 920.9 |
| 20260506170525 | 71 | 48 | 0.0 | 2.6 | 0.00 | 0.00 | 0.00 | 30 | 920.9 |
| 20260506170159 | 71 | 221 | 0.0 | 2.6 | 0.00 | 0.00 | 0.00 | 31 | 920.9 |
| 20260506170053 | 71 | 211 | 0.0 | 2.6 | 0.00 | 0.00 | 0.00 | 31 | 920.8 |
| 20260506165951 | 71 | 231 | 0.0 | 2.6 | 0.00 | 0.00 | 0.00 | 31 | 920.8 |
| 20260506165628 | 70 | 41 | 0.9 | 2.6 | 0.00 | 0.00 | 0.00 | 31 | 920.9 |
| 20260506165524 | 70 | 46 | 0.9 | 2.6 | 0.00 | 0.00 | 0.00 | 31 | 920.9 |
| 20260506165421 | 70 | 46 | 0.9 | 2.6 | 0.00 | 0.00 | 0.00 | 31 | 920.8 |
| 20260506165319 | 70 | 41 | 0.0 | 2.6 | 0.00 | 0.00 | 0.00 | 31 | 920.9 |
| 20260506165212 | 70 | 40 | 0.9 | 2.6 | 0.00 | 0.00 | 0.00 | 32 | 920.9 |
| 20260506165108 | 70 | 53 | 0.9 | 2.6 | 0.00 | 0.00 | 0.00 | 32 | 920.9 |
| 20260506165006 | 70 | 85 | 0.9 | 2.6 | 0.00 | 0.00 | 0.00 | 31 | 920.8 |
| 20260506164900 | 70 | 44 | 0.9 | 2.6 | 0.00 | 0.00 | 0.00 | 31 | 920.8 |
| 20260506164753 | 70 | 28 | 0.9 | 2.6 | 0.00 | 0.00 | 0.00 | 31 | 920.9 |
| 20260506164646 | 70 | 117 | 0.9 | 2.6 | 0.00 | 0.00 | 0.00 | 32 | 920.9 |
| 20260506164326 | 70 | 194 | 0.0 | 2.6 | 0.00 | 0.00 | 0.00 | 32 | 920.9 |
| 20260506164223 | 70 | 237 | 0.0 | 2.6 | 0.00 | 0.00 | 0.00 | 32 | 920.9 |
| 20260506164120 | 70 | 228 | 0.0 | 2.6 | 0.00 | 0.00 | 0.00 | 32 | 920.9 |
| 20260506164018 | 69 | 229 | 0.0 | 2.6 | 0.00 | 0.00 | 0.00 | 33 | 920.9 |
| 20260506163912 | 69 | 211 | 0.9 | 2.6 | 0.00 | 0.00 | 0.00 | 33 | 920.8 |
| 20260506163808 | 69 | 211 | 0.9 | 2.6 | 0.00 | 0.00 | 0.00 | 33 | 920.9 |
| 20260506163702 | 69 | 201 | 0.0 | 2.6 | 0.00 | 0.00 | 0.00 | 33 | 920.9 |
| 20260506162637 | 69 | 71 | 0.0 | 1.7 | 0.00 | 0.00 | 0.00 | 33 | 920.8 |
| 20260506162532 | 69 | 71 | 0.0 | 2.6 | 0.00 | 0.00 | 0.00 | 33 | 920.8 |
| 20260506162424 | 68 | 132 | 0.0 | 2.6 | 0.00 | 0.00 | 0.00 | 34 | 920.8 |
| 20260506162103 | 68 | 152 | 0.0 | 2.6 | 0.00 | 0.00 | 0.00 | 34 | 920.8 |
| 20260506161742 | 68 | 248 | 0.0 | 2.6 | 0.00 | 0.00 | 0.00 | 34 | 920.7 |
| 20260506161639 | 68 | 248 | 0.0 | 2.6 | 0.00 | 0.00 | 0.00 | 34 | 920.8 |
| 20260506161534 | 68 | 244 | 0.0 | 2.6 | 0.00 | 0.00 | 0.00 | 34 | 920.7 |
| 20260506161430 | 68 | 209 | 0.0 | 2.6 | 0.00 | 0.00 | 0.00 | 34 | 920.8 |
| 20260506161326 | 68 | 209 | 0.0 | 2.6 | 0.00 | 0.00 | 0.00 | 34 | 920.8 |
| 20260506161219 | 68 | 215 | 0.0 | 2.6 | 0.00 | 0.00 | 0.00 | 34 | 920.8 |
| 20260506161113 | 67 | 215 | 0.0 | 2.6 | 0.00 | 0.00 | 0.00 | 34 | 920.8 |
| 20260506161010 | 67 | 215 | 0.0 | 2.6 | 0.00 | 0.00 | 0.00 | 34 | 920.8 |
| 20260506160908 | 67 | 240 | 0.0 | 2.6 | 0.00 | 0.00 | 0.00 | 34 | 920.8 |
| 20260506160800 | 67 | 213 | 0.0 | 2.6 | 0.00 | 0.00 | 0.00 | 34 | 920.8 |
| 20260506160657 | 67 | 233 | 0.0 | 2.6 | 0.00 | 0.00 | 0.00 | 35 | 920.8 |
| 20260506160555 | 67 | 5 | 0.0 | 1.7 | 0.00 | 0.00 | 0.00 | 34 | 920.8 |
| 20260506160452 | 67 | 5 | 0.0 | 1.7 | 0.00 | 0.00 | 0.00 | 35 | 920.8 |
| 20260506160347 | 67 | 136 | 0.0 | 1.7 | 0.00 | 0.00 | 0.00 | 35 | 920.8 |
| 20260506160245 | 67 | 192 | 0.0 | 1.7 | 0.00 | 0.00 | 0.00 | 35 | 920.8 |
| 20260506160138 | 67 | 192 | 0.0 | 1.7 | 0.00 | 0.00 | 0.00 | 35 | 920.8 |
| 20260506160032 | 67 | 192 | 0.9 | 1.7 | 0.00 | 0.00 | 0.00 | 35 | 920.7 |
| 20260506155706 | 67 | 211 | 0.0 | 1.7 | 0.00 | 0.00 | 0.00 | 35 | 920.7 |
| 20260506155601 | 66 | 211 | 0.0 | 2.6 | 0.00 | 0.00 | 0.00 | 35 | 920.7 |
| 20260506155459 | 66 | 219 | 0.0 | 2.6 | 0.00 | 0.00 | 0.00 | 35 | 920.7 |
| 20260506155353 | 66 | 219 | 0.0 | 2.6 | 0.00 | 0.00 | 0.00 | 35 | 920.7 |
| 20260506155248 | 66 | 221 | 0.0 | 2.6 | 0.00 | 0.00 | 0.00 | 35 | 920.7 |
| 20260506155144 | 66 | 229 | 0.0 | 2.6 | 0.00 | 0.00 | 0.00 | 35 | 920.7 |
| 20260506155039 | 66 | 215 | 0.0 | 2.6 | 0.00 | 0.00 | 0.00 | 36 | 920.7 |
| 20260506154931 | 66 | 232 | 0.0 | 2.6 | 0.00 | 0.00 | 0.00 | 36 | 920.7 |
| 20260506154825 | 66 | 223 | 0.0 | 2.6 | 0.00 | 0.00 | 0.00 | 36 | 920.7 |
| 20260506154720 | 66 | 231 | 0.0 | 2.6 | 0.00 | 0.00 | 0.00 | 36 | 920.7 |
| 20260506154615 | 66 | 213 | 0.9 | 2.6 | 0.00 | 0.00 | 0.00 | 36 | 920.7 |
| 20260506154513 | 66 | 214 | 0.9 | 2.6 | 0.00 | 0.00 | 0.00 | 36 | 920.6 |
| 20260506153926 | 65 | 217 | 0.0 | 2.6 | 0.00 | 0.00 | 0.00 | 36 | 920.6 |
| 20260506153819 | 65 | 221 | 0.0 | 2.6 | 0.00 | 0.00 | 0.00 | 36 | 920.6 |
| 20260506153712 | 65 | 236 | 0.0 | 2.6 | 0.00 | 0.00 | 0.00 | 36 | 920.6 |
| 20260506153605 | 65 | 206 | 0.0 | 0.9 | 0.00 | 0.00 | 0.00 | 36 | 920.6 |
| 20260506153244 | 65 | 210 | 0.0 | 0.9 | 0.00 | 0.00 | 0.00 | 37 | 920.6 |
| 20260506153139 | 64 | 210 | 0.0 | 0.0 | 0.00 | 0.00 | 0.00 | 37 | 920.6 |
| 20260506152558 | 64 | 213 | 0.0 | 2.6 | 0.00 | 0.00 | 0.00 | 37 | 920.6 |
| 20260506152235 | 64 | 227 | 0.9 | 2.6 | 0.00 | 0.00 | 0.00 | 38 | 920.6 |
| 20260506151909 | 63 | 192 | 0.9 | 2.6 | 0.00 | 0.00 | 0.00 | 38 | 920.6 |
| 20260506151326 | 63 | 227 | 0.0 | 2.6 | 0.00 | 0.00 | 0.00 | 38 | 920.6 |
| 20260506151221 | 63 | 222 | 0.0 | 1.7 | 0.00 | 0.00 | 0.00 | 38 | 920.6 |
| 20260506151115 | 63 | 271 | 0.0 | 1.7 | 0.00 | 0.00 | 0.00 | 38 | 920.6 |
| 20260506151011 | 63 | 219 | 0.0 | 1.7 | 0.00 | 0.00 | 0.00 | 39 | 920.6 |
| 20260506150907 | 62 | 221 | 0.0 | 1.7 | 0.00 | 0.00 | 0.00 | 39 | 920.6 |
| 20260506150802 | 62 | 239 | 0.0 | 1.7 | 0.00 | 0.00 | 0.00 | 39 | 920.6 |
| 20260506150659 | 62 | 252 | 0.0 | 1.7 | 0.00 | 0.00 | 0.00 | 39 | 920.6 |
| 20260506150555 | 62 | 281 | 0.0 | 1.7 | 0.00 | 0.00 | 0.00 | 39 | 920.6 |
| 20260506150453 | 62 | 297 | 0.0 | 1.7 | 0.00 | 0.00 | 0.00 | 39 | 920.6 |
| 20260506150129 | 62 | 286 | 0.0 | 2.6 | 0.00 | 0.00 | 0.00 | 40 | 920.6 |
| 20260506150023 | 61 | 257 | 0.0 | 2.6 | 0.00 | 0.00 | 0.00 | 39 | 920.5 |
| 20260506145916 | 61 | 268 | 0.0 | 2.6 | 0.00 | 0.00 | 0.00 | 40 | 920.5 |
| 20260506145809 | 61 | 253 | 0.0 | 2.6 | 0.00 | 0.00 | 0.00 | 40 | 920.6 |
| 20260506145706 | 61 | 257 | 0.0 | 2.6 | 0.00 | 0.00 | 0.00 | 40 | 920.5 |
| 20260506145600 | 61 | 317 | 0.0 | 2.6 | 0.00 | 0.00 | 0.00 | 40 | 920.6 |
| 20260506145452 | 61 | 302 | 0.0 | 2.6 | 0.00 | 0.00 | 0.00 | 41 | 920.6 |
| 20260506145130 | 61 | 289 | 0.0 | 2.6 | 0.00 | 0.00 | 0.00 | 41 | 920.6 |
| 20260506145022 | 60 | 271 | 0.0 | 2.6 | 0.00 | 0.00 | 0.00 | 41 | 920.6 |
| 20260506144915 | 60 | 265 | 0.0 | 2.6 | 0.00 | 0.00 | 0.00 | 41 | 920.6 |
| 20260506144331 | 60 | 252 | 0.0 | 2.6 | 0.00 | 0.00 | 0.00 | 41 | 920.5 |
| 20260506144225 | 60 | 225 | 0.0 | 1.7 | 0.00 | 0.00 | 0.00 | 41 | 920.5 |
| 20260506143644 | 59 | 309 | 0.9 | 2.6 | 0.00 | 0.00 | 0.00 | 42 | 920.5 |
| 20260506143538 | 59 | 323 | 0.9 | 2.6 | 0.00 | 0.00 | 0.00 | 42 | 920.5 |
| 20260506143436 | 59 | 298 | 0.9 | 2.6 | 0.00 | 0.00 | 0.00 | 42 | 920.4 |
| 20260506143328 | 59 | 305 | 0.9 | 2.6 | 0.00 | 0.00 | 0.00 | 42 | 920.5 |
| 20260506143221 | 58 | 300 | 0.9 | 2.6 | 0.00 | 0.00 | 0.00 | 42 | 920.5 |
| 20260506142636 | 58 | 209 | 0.0 | 2.6 | 0.00 | 0.00 | 0.00 | 43 | 920.4 |
| 20260506142531 | 58 | 289 | 0.0 | 2.6 | 0.00 | 0.00 | 0.00 | 43 | 920.3 |
| 20260506142426 | 58 | 292 | 0.0 | 2.6 | 0.00 | 0.00 | 0.00 | 43 | 920.3 |
| 20260506142101 | 57 | 290 | 0.0 | 2.6 | 0.00 | 0.00 | 0.00 | 44 | 920.3 |
| 20260506141956 | 57 | 290 | 0.0 | 2.6 | 0.00 | 0.00 | 0.00 | 44 | 920.3 |
| 20260506141852 | 57 | 289 | 0.0 | 2.6 | 0.00 | 0.00 | 0.00 | 44 | 920.3 |
| 20260506141746 | 57 | 286 | 0.0 | 2.6 | 0.00 | 0.00 | 0.00 | 44 | 920.3 |
| 20260506141644 | 57 | 300 | 0.0 | 2.6 | 0.00 | 0.00 | 0.00 | 44 | 920.3 |
| 20260506141539 | 57 | 279 | 0.0 | 2.6 | 0.00 | 0.00 | 0.00 | 45 | 920.2 |
| 20260506141433 | 57 | 304 | 0.0 | 2.6 | 0.00 | 0.00 | 0.00 | 45 | 920.2 |
| 20260506141327 | 57 | 288 | 0.0 | 2.6 | 0.00 | 0.00 | 0.00 | 45 | 920.2 |
| 20260506141225 | 56 | 285 | 0.0 | 2.6 | 0.00 | 0.00 | 0.00 | 44 | 920.2 |
| 20260506140859 | 56 | 288 | 0.0 | 1.7 | 0.00 | 0.00 | 0.00 | 46 | 920.2 |
| 20260506140755 | 56 | 277 | 0.0 | 1.7 | 0.00 | 0.00 | 0.00 | 46 | 920.2 |
| 20260506140650 | 56 | 298 | 0.0 | 1.7 | 0.00 | 0.00 | 0.00 | 46 | 920.2 |
| 20260506140106 | 55 | 271 | 0.0 | 1.7 | 0.00 | 0.00 | 0.00 | 47 | 920.2 |
| 20260506135744 | 55 | 281 | 0.0 | 1.7 | 0.00 | 0.00 | 0.00 | 47 | 920.2 |
| 20260506135635 | 55 | 292 | 0.0 | 1.7 | 0.00 | 0.00 | 0.00 | 47 | 920.2 |
| 20260506135529 | 55 | 283 | 0.0 | 1.7 | 0.00 | 0.00 | 0.00 | 47 | 920.2 |
| 20260506135423 | 54 | 261 | 0.0 | 1.7 | 0.00 | 0.00 | 0.00 | 47 | 920.1 |
| 20260506135316 | 54 | 265 | 0.0 | 1.7 | 0.00 | 0.00 | 0.00 | 47 | 920.1 |
| 20260506135211 | 54 | 271 | 0.0 | 1.7 | 0.00 | 0.00 | 0.00 | 47 | 920.1 |
| 20260506135104 | 54 | 275 | 0.0 | 1.7 | 0.00 | 0.00 | 0.00 | 47 | 920.1 |
| 20260506134956 | 54 | 263 | 0.0 | 1.7 | 0.00 | 0.00 | 0.00 | 47 | 920.1 |
| 20260506134851 | 54 | 258 | 0.0 | 1.7 | 0.00 | 0.00 | 0.00 | 47 | 920.1 |
| 20260506134303 | 53 | 277 | 0.0 | 0.9 | 0.00 | 0.00 | 0.00 | 48 | 920.0 |
| 20260506134156 | 53 | 271 | 0.0 | 0.9 | 0.00 | 0.00 | 0.00 | 48 | 919.9 |
| 20260506133831 | 53 | 99 | 0.0 | 0.0 | 0.00 | 0.00 | 0.00 | 47 | 919.9 |
| 20260506133503 | 53 | 99 | 0.0 | 0.9 | 0.00 | 0.00 | 0.00 | 47 | 919.8 |
| 20260506133140 | 53 | 98 | 0.0 | 0.0 | 0.00 | 0.00 | 0.00 | 47 | 919.8 |
| 20260506133034 | 53 | 99 | 0.0 | 0.0 | 0.00 | 0.00 | 0.00 | 47 | 919.8 |
| 20260506132932 | 53 | 99 | 0.0 | 0.0 | 0.00 | 0.00 | 0.00 | 47 | 919.8 |
| 20260506132829 | 53 | 99 | 0.0 | 0.0 | 0.00 | 0.00 | 0.00 | 47 | 919.8 |
| 20260506132727 | 53 | 99 | 0.0 | 0.0 | 0.00 | 0.00 | 0.00 | 47 | 919.7 |
| 20260506132620 | 53 | 99 | 0.0 | 0.0 | 0.00 | 0.00 | 0.00 | 47 | 919.8 |
| 20260506132518 | 53 | 99 | 0.0 | 0.0 | 0.00 | 0.00 | 0.00 | 47 | 919.8 |
| 20260506132414 | 53 | 99 | 0.0 | 0.0 | 0.00 | 0.00 | 0.00 | 46 | 919.7 |
| 20260506132307 | 53 | 99 | 0.0 | 0.0 | 0.00 | 0.00 | 0.00 | 46 | 919.7 |
| 20260506132159 | 53 | 99 | 0.0 | 0.0 | 0.00 | 0.00 | 0.00 | 46 | 919.6 |
| 20260506132056 | 53 | 99 | 0.0 | 0.0 | 0.00 | 0.00 | 0.00 | 46 | 919.6 |
| 20260506131948 | 53 | 99 | 0.0 | 0.0 | 0.00 | 0.00 | 0.00 | 46 | 919.7 |
| 20260506131625 | 53 | 74 | 0.0 | 0.0 | 0.00 | 0.00 | 0.00 | 46 | 919.6 |
| 20260506131521 | 53 | 74 | 0.0 | 0.0 | 0.00 | 0.00 | 0.00 | 46 | 919.6 |
| 20260506131159 | 53 | 74 | 0.0 | 0.0 | 0.00 | 0.00 | 0.00 | 45 | 919.5 |
| 20260506131052 | 54 | 74 | 0.0 | 0.0 | 0.00 | 0.00 | 0.00 | 45 | 919.5 |
| 20260506130948 | 54 | 74 | 0.0 | 0.0 | 0.00 | 0.00 | 0.00 | 45 | 919.5 |
| 20260506130841 | 54 | 74 | 0.0 | 0.0 | 0.00 | 0.00 | 0.00 | 46 | 919.5 |
| 20260506130734 | 54 | 74 | 0.0 | 0.0 | 0.00 | 0.00 | 0.00 | 45 | 919.5 |
| 20260506130627 | 54 | 74 | 0.0 | 0.0 | 0.00 | 0.00 | 0.00 | 45 | 919.5 |
| 20260506130048 | 54 | 74 | 0.0 | 0.0 | 0.00 | 0.00 | 0.00 | 46 | 919.5 |
| 20260506125944 | 54 | 74 | 0.0 | 0.0 | 0.00 | 0.00 | 0.00 | 46 | 919.5 |
| 20260506125837 | 54 | 74 | 0.0 | 0.0 | 0.00 | 0.00 | 0.00 | 46 | 919.4 |
| 20260506125730 | 54 | 74 | 0.0 | 0.0 | 0.00 | 0.00 | 0.00 | 46 | 919.5 |
| 20260506125625 | 54 | 74 | 0.0 | 0.0 | 0.00 | 0.00 | 0.00 | 45 | 919.4 |
| 20260506125516 | 54 | 74 | 0.0 | 0.0 | 0.00 | 0.00 | 0.00 | 45 | 919.4 |
| 20260506125151 | 54 | 74 | 0.0 | 0.0 | 0.00 | 0.00 | 0.00 | 45 | 919.4 |
| 20260506125047 | 54 | 74 | 0.0 | 0.0 | 0.00 | 0.00 | 0.00 | 45 | 919.3 |
| 20260506124945 | 54 | 74 | 0.0 | 0.0 | 0.00 | 0.00 | 0.00 | 45 | 919.3 |
| 20260506124621 | 54 | 74 | 0.0 | 0.0 | 0.00 | 0.00 | 0.00 | 45 | 919.3 |
| 20260506124518 | 54 | 74 | 0.0 | 0.0 | 0.00 | 0.00 | 0.00 | 45 | 919.2 |
| 20260506124416 | 54 | 74 | 0.0 | 0.0 | 0.00 | 0.00 | 0.00 | 45 | 919.2 |
| 20260506124308 | 54 | 74 | 0.0 | 0.0 | 0.00 | 0.00 | 0.00 | 45 | 919.2 |
| 20260506124206 | 54 | 74 | 0.0 | 0.0 | 0.00 | 0.00 | 0.00 | 45 | 919.1 |
| 20260506124103 | 55 | 74 | 0.0 | 0.0 | 0.00 | 0.00 | 0.00 | 45 | 919.1 |
| 20260506123955 | 55 | 74 | 0.0 | 0.0 | 0.00 | 0.00 | 0.00 | 46 | 919.1 |
| 20260506123854 | 55 | 74 | 0.0 | 0.0 | 0.00 | 0.00 | 0.00 | 45 | 919.1 |
| 20260506123530 | 55 | 74 | 0.0 | 0.0 | 0.00 | 0.00 | 0.00 | 45 | 919.0 |
| 20260506123424 | 55 | 74 | 0.0 | 0.0 | 0.00 | 0.00 | 0.00 | 45 | 919.1 |
| 20260506123318 | 55 | 74 | 0.0 | 0.0 | 0.00 | 0.00 | 0.00 | 45 | 919.0 |
| 20260506123216 | 55 | 74 | 0.0 | 0.0 | 0.00 | 0.00 | 0.00 | 45 | 919.0 |
| 20260506123109 | 55 | 74 | 0.0 | 0.0 | 0.00 | 0.00 | 0.00 | 45 | 919.0 |
| 20260506123005 | 55 | 74 | 0.0 | 0.0 | 0.00 | 0.00 | 0.00 | 45 | 919.0 |
| 20260506122902 | 55 | 74 | 0.0 | 0.0 | 0.00 | 0.00 | 0.00 | 45 | 919.0 |
| 20260506122757 | 55 | 74 | 0.0 | 0.0 | 0.00 | 0.00 | 0.00 | 45 | 919.0 |
| 20260506122437 | 55 | 74 | 0.0 | 0.0 | 0.00 | 0.00 | 0.00 | 45 | 918.9 |
| 20260506122332 | 55 | 74 | 0.0 | 0.0 | 0.00 | 0.00 | 0.00 | 45 | 918.9 |
| 20260506122227 | 55 | 74 | 0.0 | 0.0 | 0.00 | 0.00 | 0.00 | 45 | 918.9 |
| 20260506122125 | 55 | 74 | 0.0 | 0.0 | 0.00 | 0.00 | 0.00 | 45 | 918.9 |
| 20260506122022 | 55 | 74 | 0.0 | 0.0 | 0.00 | 0.00 | 0.00 | 45 | 918.9 |
| 20260506121701 | 55 | 74 | 0.0 | 0.0 | 0.00 | 0.00 | 0.00 | 45 | 918.9 |
| 20260506121338 | 55 | 74 | 0.0 | 0.0 | 0.00 | 0.00 | 0.00 | 45 | 918.9 |
| 20260506121231 | 55 | 74 | 0.0 | 0.0 | 0.00 | 0.00 | 0.00 | 45 | 918.9 |
| 20260506121019 | 55 | 74 | 0.0 | 0.0 | 0.00 | 0.00 | 0.00 | 45 | 918.8 |
| 20260506120914 | 55 | 74 | 0.0 | 0.0 | 0.00 | 0.00 | 0.00 | 45 | 918.8 |
| 20260506120810 | 55 | 74 | 0.0 | 0.0 | 0.00 | 0.00 | 0.00 | 45 | 918.9 |
| 20260506120706 | 55 | 74 | 0.0 | 0.0 | 0.00 | 0.00 | 0.00 | 44 | 918.8 |
| 20260506120603 | 55 | 74 | 0.0 | 0.0 | 0.00 | 0.00 | 0.00 | 45 | 918.9 |
| 20260506120457 | 55 | 74 | 0.0 | 0.0 | 0.00 | 0.00 | 0.00 | 45 | 918.8 |
| 20260506120351 | 55 | 74 | 0.0 | 0.0 | 0.00 | 0.00 | 0.00 | 45 | 918.8 |
| 20260506120249 | 55 | 74 | 0.0 | 0.0 | 0.00 | 0.00 | 0.00 | 45 | 918.8 |
| 20260506120147 | 55 | 74 | 0.0 | 0.0 | 0.00 | 0.00 | 0.00 | 44 | 918.8 |
| 20260506120040 | 55 | 74 | 0.0 | 0.0 | 0.00 | 0.00 | 0.00 | 44 | 918.8 |
| 20260506115719 | 55 | 74 | 0.0 | 0.0 | 0.00 | 0.00 | 0.00 | 44 | 918.8 |
| 20260506115616 | 55 | 74 | 0.0 | 0.0 | 0.00 | 0.00 | 0.00 | 44 | 918.8 |
| 20260506115511 | 56 | 74 | 0.0 | 0.0 | 0.00 | 0.00 | 0.00 | 44 | 918.8 |
| 20260506114927 | 56 | 74 | 0.0 | 0.0 | 0.00 | 0.00 | 0.00 | 44 | 918.9 |
| 20260506114819 | 56 | 74 | 0.0 | 0.0 | 0.00 | 0.00 | 0.00 | 44 | 918.8 |
| 20260506114715 | 56 | 74 | 0.0 | 0.0 | 0.00 | 0.00 | 0.00 | 44 | 918.8 |
| 20260506114611 | 56 | 74 | 0.0 | 0.0 | 0.00 | 0.00 | 0.00 | 43 | 918.8 |
| 20260506114029 | 56 | 74 | 0.0 | 0.0 | 0.00 | 0.00 | 0.00 | 43 | 918.8 |
| 20260506113926 | 56 | 74 | 0.0 | 0.0 | 0.00 | 0.00 | 0.00 | 43 | 918.8 |
| 20260506113557 | 56 | 74 | 0.0 | 0.0 | 0.00 | 0.00 | 0.00 | 42 | 918.8 |
| 20260506113451 | 56 | 74 | 0.0 | 0.0 | 0.00 | 0.00 | 0.00 | 42 | 918.8 |
| 20260506113349 | 56 | 74 | 0.0 | 0.0 | 0.00 | 0.00 | 0.00 | 43 | 918.7 |
| 20260506113245 | 56 | 74 | 0.0 | 0.0 | 0.00 | 0.00 | 0.00 | 42 | 918.7 |
| 20260506113139 | 56 | 74 | 0.0 | 0.0 | 0.00 | 0.00 | 0.00 | 42 | 918.7 |
| 20260506113033 | 56 | 74 | 0.0 | 0.0 | 0.00 | 0.00 | 0.00 | 42 | 918.7 |
| 20260506112713 | 56 | 74 | 0.0 | 0.0 | 0.00 | 0.00 | 0.00 | 42 | 918.6 |
| 20260506112609 | 56 | 74 | 0.0 | 0.0 | 0.00 | 0.00 | 0.00 | 42 | 918.6 |
| 20260506112503 | 56 | 74 | 0.0 | 0.0 | 0.00 | 0.00 | 0.00 | 42 | 918.7 |
| 20260506112355 | 56 | 74 | 0.0 | 0.0 | 0.00 | 0.00 | 0.00 | 42 | 918.6 |
| 20260506112248 | 56 | 74 | 0.0 | 0.0 | 0.00 | 0.00 | 0.00 | 42 | 918.6 |
| 20260506111705 | 57 | 73 | 0.0 | 0.0 | 0.00 | 0.00 | 0.00 | 42 | 918.5 |
| 20260506111558 | 57 | 73 | 0.0 | 0.9 | 0.00 | 0.00 | 0.00 | 42 | 918.5 |
| 20260506111456 | 57 | 74 | 0.0 | 0.9 | 0.00 | 0.00 | 0.00 | 42 | 918.5 |
| 20260506111350 | 57 | 73 | 0.0 | 1.7 | 0.00 | 0.00 | 0.00 | 42 | 918.5 |
| 20260506111243 | 57 | 73 | 0.0 | 1.7 | 0.00 | 0.00 | 0.00 | 42 | 918.5 |
| 20260506110918 | 57 | 69 | 0.0 | 1.7 | 0.00 | 0.00 | 0.00 | 41 | 918.5 |
| 20260506110815 | 57 | 67 | 0.0 | 1.7 | 0.00 | 0.00 | 0.00 | 41 | 918.5 |
| 20260506110711 | 57 | 67 | 0.0 | 1.7 | 0.00 | 0.00 | 0.00 | 41 | 918.5 |
| 20260506110607 | 57 | 68 | 0.0 | 1.7 | 0.00 | 0.00 | 0.00 | 41 | 918.5 |
| 20260506110504 | 57 | 71 | 0.0 | 1.7 | 0.00 | 0.00 | 0.00 | 41 | 918.5 |
| 20260506110359 | 57 | 73 | 0.9 | 1.7 | 0.00 | 0.00 | 0.00 | 41 | 918.5 |
| 20260506110255 | 57 | 84 | 0.9 | 1.7 | 0.00 | 0.00 | 0.00 | 41 | 918.5 |
| 20260506110150 | 57 | 79 | 0.9 | 1.7 | 0.00 | 0.00 | 0.00 | 41 | 918.4 |
| 20260506110046 | 57 | 58 | 0.9 | 1.7 | 0.00 | 0.00 | 0.00 | 41 | 918.5 |
| 20260506105942 | 57 | 59 | 0.9 | 1.7 | 0.00 | 0.00 | 0.00 | 41 | 918.4 |
| 20260506105836 | 57 | 54 | 0.0 | 1.7 | 0.00 | 0.00 | 0.00 | 41 | 918.4 |
| 20260506105729 | 57 | 52 | 0.0 | 1.7 | 0.00 | 0.00 | 0.00 | 41 | 918.4 |
| 20260506105622 | 57 | 62 | 0.0 | 1.7 | 0.00 | 0.00 | 0.00 | 41 | 918.4 |
| 20260506105517 | 57 | 53 | 0.0 | 1.7 | 0.00 | 0.00 | 0.00 | 41 | 918.4 |
| 20260506105415 | 57 | 57 | 0.0 | 0.9 | 0.00 | 0.00 | 0.00 | 41 | 918.4 |
| 20260506105053 | 57 | 80 | 0.0 | 0.9 | 0.00 | 0.00 | 0.00 | 41 | 918.3 |
| 20260506104948 | 57 | 82 | 0.0 | 0.0 | 0.00 | 0.00 | 0.00 | 41 | 918.3 |
| 20260506104845 | 57 | 82 | 0.0 | 0.0 | 0.00 | 0.00 | 0.00 | 41 | 918.3 |
| 20260506104739 | 57 | 82 | 0.0 | 0.0 | 0.00 | 0.00 | 0.00 | 41 | 918.3 |
| 20260506104635 | 57 | 82 | 0.0 | 0.0 | 0.00 | 0.00 | 0.00 | 41 | 918.2 |
| 20260506104530 | 57 | 82 | 0.0 | 0.0 | 0.00 | 0.00 | 0.00 | 41 | 918.2 |
| 20260506104424 | 57 | 82 | 0.0 | 0.0 | 0.00 | 0.00 | 0.00 | 41 | 918.2 |
| 20260506104320 | 57 | 82 | 0.0 | 0.0 | 0.00 | 0.00 | 0.00 | 41 | 918.2 |
| 20260506103957 | 57 | 82 | 0.0 | 0.0 | 0.00 | 0.00 | 0.00 | 41 | 918.1 |
| 20260506103850 | 58 | 82 | 0.0 | 0.0 | 0.00 | 0.00 | 0.00 | 41 | 918.1 |
| 20260506103743 | 58 | 82 | 0.0 | 0.0 | 0.00 | 0.00 | 0.00 | 41 | 918.1 |
| 20260506103638 | 58 | 82 | 0.0 | 0.0 | 0.00 | 0.00 | 0.00 | 41 | 918.1 |
| 20260506103535 | 58 | 82 | 0.0 | 0.0 | 0.00 | 0.00 | 0.00 | 41 | 918.1 |
| 20260506103209 | 58 | 82 | 0.0 | 0.0 | 0.00 | 0.00 | 0.00 | 40 | 918.0 |
| 20260506103107 | 58 | 82 | 0.0 | 0.0 | 0.00 | 0.00 | 0.00 | 40 | 918.0 |
| 20260506103005 | 58 | 82 | 0.0 | 0.0 | 0.00 | 0.00 | 0.00 | 40 | 918.0 |
| 20260506102903 | 58 | 82 | 0.0 | 0.0 | 0.00 | 0.00 | 0.00 | 40 | 918.0 |
| 20260506102800 | 58 | 122 | 0.0 | 0.0 | 0.00 | 0.00 | 0.00 | 40 | 918.0 |
| 20260506102657 | 58 | 122 | 0.0 | 0.0 | 0.00 | 0.00 | 0.00 | 40 | 918.0 |
| 20260506102550 | 58 | 122 | 0.0 | 0.0 | 0.00 | 0.00 | 0.00 | 40 | 918.0 |
| 20260506102444 | 58 | 122 | 0.0 | 0.0 | 0.00 | 0.00 | 0.00 | 40 | 918.0 |
| 20260506102119 | 58 | 122 | 0.0 | 0.0 | 0.00 | 0.00 | 0.00 | 40 | 917.9 |
| 20260506102015 | 58 | 122 | 0.0 | 0.0 | 0.00 | 0.00 | 0.00 | 40 | 917.9 |
| 20260506101654 | 58 | 122 | 0.0 | 0.9 | 0.00 | 0.00 | 0.00 | 40 | 917.9 |
| 20260506101326 | 58 | 78 | 0.0 | 0.0 | 0.00 | 0.00 | 0.00 | 40 | 917.9 |
| 20260506101221 | 58 | 78 | 0.0 | 0.0 | 0.00 | 0.00 | 0.00 | 40 | 917.9 |
| 20260506101119 | 58 | 78 | 0.0 | 0.0 | 0.00 | 0.00 | 0.00 | 39 | 917.9 |
| 20260506101013 | 58 | 78 | 0.0 | 0.0 | 0.00 | 0.00 | 0.00 | 39 | 917.9 |
| 20260506100910 | 58 | 78 | 0.0 | 0.0 | 0.00 | 0.00 | 0.00 | 39 | 917.8 |
| 20260506100805 | 58 | 78 | 0.0 | 0.0 | 0.00 | 0.00 | 0.00 | 39 | 917.9 |
| 20260506100659 | 58 | 78 | 0.0 | 0.0 | 0.00 | 0.00 | 0.00 | 40 | 917.9 |
| 20260506100556 | 58 | 78 | 0.0 | 0.0 | 0.00 | 0.00 | 0.00 | 40 | 917.9 |
| 20260506100451 | 58 | 78 | 0.0 | 0.0 | 0.00 | 0.00 | 0.00 | 40 | 917.8 |
| 20260506100348 | 58 | 78 | 0.0 | 0.0 | 0.00 | 0.00 | 0.00 | 39 | 917.8 |
| 20260506100019 | 58 | 74 | 0.0 | 1.7 | 0.00 | 0.00 | 0.00 | 39 | 917.8 |
| 20260506095916 | 58 | 132 | 0.0 | 1.7 | 0.00 | 0.00 | 0.00 | 39 | 917.8 |
| 20260506095810 | 58 | 132 | 0.0 | 1.7 | 0.00 | 0.00 | 0.00 | 40 | 917.8 |
| 20260506095707 | 59 | 132 | 0.0 | 1.7 | 0.00 | 0.00 | 0.00 | 40 | 917.8 |
| 20260506095600 | 59 | 128 | 0.0 | 0.9 | 0.00 | 0.00 | 0.00 | 40 | 917.8 |
| 20260506095457 | 59 | 128 | 0.0 | 0.9 | 0.00 | 0.00 | 0.00 | 40 | 917.8 |
| 20260506095349 | 59 | 128 | 0.0 | 0.9 | 0.00 | 0.00 | 0.00 | 40 | 917.7 |
| 20260506095241 | 59 | 128 | 0.0 | 0.9 | 0.00 | 0.00 | 0.00 | 40 | 917.7 |
| 20260506095136 | 59 | 128 | 0.0 | 0.9 | 0.00 | 0.00 | 0.00 | 40 | 917.7 |
| 20260506094816 | 59 | 154 | 0.0 | 0.9 | 0.00 | 0.00 | 0.00 | 39 | 917.7 |
| 20260506094714 | 59 | 157 | 0.0 | 0.9 | 0.00 | 0.00 | 0.00 | 39 | 917.7 |
| 20260506094610 | 59 | 56 | 0.0 | 0.0 | 0.00 | 0.00 | 0.00 | 39 | 917.7 |
| 20260506094503 | 59 | 153 | 0.0 | 0.0 | 0.00 | 0.00 | 0.00 | 39 | 917.7 |
| 20260506094358 | 59 | 153 | 0.0 | 0.0 | 0.00 | 0.00 | 0.00 | 39 | 917.7 |
| 20260506094254 | 59 | 153 | 0.0 | 2.6 | 0.00 | 0.00 | 0.00 | 39 | 917.7 |
| 20260506093929 | 59 | 146 | 0.0 | 2.6 | 0.00 | 0.00 | 0.00 | 39 | 917.6 |
| 20260506093824 | 59 | 150 | 0.0 | 2.6 | 0.00 | 0.00 | 0.00 | 39 | 917.7 |
| 20260506093718 | 59 | 151 | 0.0 | 2.6 | 0.00 | 0.00 | 0.00 | 39 | 917.6 |
| 20260506093351 | 59 | 151 | 0.0 | 2.6 | 0.00 | 0.00 | 0.00 | 38 | 917.6 |
| 20260506093247 | 59 | 151 | 0.0 | 2.6 | 0.00 | 0.00 | 0.00 | 38 | 917.6 |
| 20260506093140 | 59 | 151 | 0.0 | 2.6 | 0.00 | 0.00 | 0.00 | 38 | 917.6 |
| 20260506092557 | 59 | 82 | 0.0 | 0.0 | 0.00 | 0.00 | 0.00 | 38 | 917.6 |
| 20260506092454 | 59 | 82 | 0.0 | 0.0 | 0.00 | 0.00 | 0.00 | 38 | 917.6 |
| 20260506092126 | 59 | 82 | 0.0 | 0.0 | 0.00 | 0.00 | 0.00 | 38 | 917.6 |
| 20260506092021 | 59 | 82 | 0.0 | 0.0 | 0.00 | 0.00 | 0.00 | 38 | 917.6 |
| 20260506091918 | 59 | 82 | 0.0 | 0.0 | 0.00 | 0.00 | 0.00 | 38 | 917.6 |
| 20260506091811 | 59 | 82 | 0.0 | 0.0 | 0.00 | 0.00 | 0.00 | 38 | 917.6 |
| 20260506091708 | 59 | 82 | 0.0 | 0.0 | 0.00 | 0.00 | 0.00 | 38 | 917.6 |
| 20260506091343 | 59 | 82 | 0.0 | 1.7 | 0.00 | 0.00 | 0.00 | 38 | 917.5 |
| 20260506091238 | 59 | 82 | 0.0 | 1.7 | 0.00 | 0.00 | 0.00 | 38 | 917.5 |
| 20260506090220 | 59 | 78 | 0.0 | 1.7 | 0.00 | 0.00 | 0.00 | 39 | 917.6 |
| 20260506090114 | 59 | 79 | 0.9 | 2.6 | 0.00 | 0.00 | 0.00 | 39 | 917.5 |
| 20260506085750 | 59 | 92 | 0.9 | 2.6 | 0.00 | 0.00 | 0.00 | 39 | 917.5 |
| 20260506085644 | 59 | 88 | 0.9 | 2.6 | 0.00 | 0.00 | 0.00 | 39 | 917.6 |
| 20260506085539 | 58 | 80 | 0.9 | 2.6 | 0.00 | 0.00 | 0.00 | 39 | 917.5 |
| 20260506085433 | 58 | 79 | 0.9 | 2.6 | 0.00 | 0.00 | 0.00 | 39 | 917.6 |
| 20260506085328 | 58 | 86 | 0.9 | 2.6 | 0.00 | 0.00 | 0.00 | 39 | 917.6 |
| 20260506085003 | 58 | 44 | 0.9 | 2.6 | 0.00 | 0.00 | 0.00 | 39 | 917.5 |
| 20260506084856 | 58 | 65 | 0.9 | 2.6 | 0.00 | 0.00 | 0.00 | 39 | 917.5 |
| 20260506084752 | 58 | 81 | 0.0 | 2.6 | 0.00 | 0.00 | 0.00 | 39 | 917.5 |
| 20260506084204 | 58 | 88 | 0.9 | 2.6 | 0.00 | 0.00 | 0.00 | 38 | 917.5 |
| 20260506084100 | 58 | 88 | 0.9 | 2.6 | 0.00 | 0.00 | 0.00 | 38 | 917.5 |
| 20260506083957 | 58 | 68 | 0.9 | 2.6 | 0.00 | 0.00 | 0.00 | 38 | 917.5 |
| 20260506083854 | 58 | 61 | 0.9 | 2.6 | 0.00 | 0.00 | 0.00 | 38 | 917.5 |
| 20260506083747 | 58 | 81 | 0.9 | 2.6 | 0.00 | 0.00 | 0.00 | 38 | 917.4 |
| 20260506083641 | 58 | 61 | 0.9 | 2.6 | 0.00 | 0.00 | 0.00 | 38 | 917.4 |
| 20260506083318 | 58 | 59 | 0.9 | 2.6 | 0.00 | 0.00 | 0.00 | 38 | 917.4 |
| 20260506083214 | 58 | 65 | 0.9 | 2.6 | 0.00 | 0.00 | 0.00 | 38 | 917.4 |
| 20260506083112 | 58 | 72 | 0.9 | 1.7 | 0.00 | 0.00 | 0.00 | 38 | 917.4 |
| 20260506083010 | 58 | 67 | 0.9 | 1.7 | 0.00 | 0.00 | 0.00 | 38 | 917.4 |
| 20260506082903 | 58 | 71 | 0.9 | 1.7 | 0.00 | 0.00 | 0.00 | 38 | 917.4 |
| 20260506082538 | 58 | 53 | 0.9 | 1.7 | 0.00 | 0.00 | 0.00 | 38 | 917.5 |
| 20260506082435 | 58 | 47 | 0.9 | 1.7 | 0.00 | 0.00 | 0.00 | 38 | 917.5 |
| 20260506082332 | 58 | 49 | 0.9 | 1.7 | 0.00 | 0.00 | 0.00 | 38 | 917.4 |
| 20260506082229 | 58 | 44 | 0.9 | 1.7 | 0.00 | 0.00 | 0.00 | 38 | 917.4 |
| 20260506082123 | 58 | 63 | 0.0 | 1.7 | 0.00 | 0.00 | 0.00 | 38 | 917.5 |
| 20260506082019 | 58 | 20 | 0.0 | 1.7 | 0.00 | 0.00 | 0.00 | 37 | 917.4 |
| 20260506081917 | 58 | 33 | 0.0 | 1.7 | 0.00 | 0.00 | 0.00 | 37 | 917.4 |
| 20260506081814 | 58 | 52 | 0.0 | 1.7 | 0.00 | 0.00 | 0.00 | 37 | 917.4 |
| 20260506081705 | 58 | 66 | 0.0 | 0.9 | 0.00 | 0.00 | 0.00 | 37 | 917.5 |
| 20260506081558 | 58 | 78 | 0.0 | 0.9 | 0.00 | 0.00 | 0.00 | 37 | 917.5 |
| 20260506081452 | 58 | 86 | 0.0 | 0.9 | 0.00 | 0.00 | 0.00 | 37 | 917.5 |
| 20260506081343 | 58 | 237 | 0.0 | 0.9 | 0.00 | 0.00 | 0.00 | 37 | 917.4 |
| 20260506081240 | 58 | 234 | 0.0 | 0.9 | 0.00 | 0.00 | 0.00 | 37 | 917.5 |
| 20260506081136 | 58 | 234 | 0.0 | 0.0 | 0.00 | 0.00 | 0.00 | 36 | 917.5 |
| 20260506081031 | 58 | 234 | 0.0 | 0.0 | 0.00 | 0.00 | 0.00 | 36 | 917.4 |
| 20260506080924 | 58 | 234 | 0.0 | 0.0 | 0.00 | 0.00 | 0.00 | 36 | 917.4 |
| 20260506080817 | 58 | 234 | 0.0 | 0.0 | 0.00 | 0.00 | 0.00 | 36 | 917.4 |
| 20260506080709 | 58 | 234 | 0.0 | 0.0 | 0.00 | 0.00 | 0.00 | 36 | 917.5 |
| 20260506080604 | 58 | 234 | 0.0 | 0.0 | 0.00 | 0.00 | 0.00 | 36 | 917.4 |
| 20260506080501 | 58 | 234 | 0.0 | 0.0 | 0.00 | 0.00 | 0.00 | 36 | 917.4 |
| 20260506080355 | 58 | 234 | 0.0 | 0.0 | 0.00 | 0.00 | 0.00 | 36 | 917.4 |
| 20260506080253 | 58 | 234 | 0.0 | 0.0 | 0.00 | 0.00 | 0.00 | 36 | 917.4 |
| 20260506080147 | 59 | 234 | 0.0 | 0.0 | 0.00 | 0.00 | 0.00 | 36 | 917.4 |
| 20260506073101 | 61 | 232 | 0.0 | 4.3 | 0.00 | 0.00 | 0.00 | 34 | 917.2 |
| 20260506072956 | 61 | 232 | 0.9 | 4.3 | 0.00 | 0.00 | 0.00 | 34 | 917.2 |
| 20260506072850 | 61 | 232 | 0.9 | 4.3 | 0.00 | 0.00 | 0.00 | 34 | 917.2 |
| 20260506072748 | 61 | 232 | 0.9 | 4.3 | 0.00 | 0.00 | 0.00 | 34 | 917.2 |
| 20260506072640 | 61 | 232 | 0.9 | 4.3 | 0.00 | 0.00 | 0.00 | 34 | 917.3 |
| 20260506072535 | 61 | 226 | 0.9 | 4.3 | 0.00 | 0.00 | 0.00 | 34 | 917.2 |
| 20260506072429 | 61 | 226 | 1.7 | 4.3 | 0.00 | 0.00 | 0.00 | 34 | 917.2 |
| 20260506072326 | 61 | 226 | 1.7 | 4.3 | 0.00 | 0.00 | 0.00 | 34 | 917.2 |
| 20260506072219 | 62 | 226 | 1.7 | 4.3 | 0.00 | 0.00 | 0.00 | 34 | 917.2 |
| 20260506072114 | 62 | 234 | 1.7 | 4.3 | 0.00 | 0.00 | 0.00 | 34 | 917.2 |
| 20260506072007 | 62 | 226 | 1.7 | 4.3 | 0.00 | 0.00 | 0.00 | 34 | 917.2 |
| 20260506071900 | 62 | 254 | 1.7 | 4.3 | 0.00 | 0.00 | 0.00 | 35 | 917.1 |
| 20260506071755 | 62 | 255 | 1.7 | 4.3 | 0.00 | 0.00 | 0.00 | 34 | 917.1 |
| 20260506071651 | 62 | 232 | 1.7 | 4.3 | 0.00 | 0.00 | 0.00 | 34 | 917.1 |
| 20260506071546 | 62 | 215 | 0.9 | 4.3 | 0.00 | 0.00 | 0.00 | 34 | 917.1 |
| 20260506071442 | 62 | 223 | 0.9 | 4.3 | 0.00 | 0.00 | 0.00 | 34 | 917.0 |
| 20260506071339 | 62 | 218 | 0.9 | 4.3 | 0.00 | 0.00 | 0.00 | 35 | 917.0 |
| 20260506071232 | 62 | 12 | 0.9 | 1.7 | 0.00 | 0.00 | 0.00 | 35 | 916.9 |
| 20260506071128 | 62 | 17 | 0.9 | 1.7 | 0.00 | 0.00 | 0.00 | 35 | 916.9 |
| 20260506071023 | 62 | 9 | 0.9 | 1.7 | 0.00 | 0.00 | 0.00 | 35 | 916.9 |
| 20260506070915 | 62 | 10 | 0.9 | 3.5 | 0.00 | 0.00 | 0.00 | 35 | 916.9 |
| 20260506070811 | 62 | 26 | 0.9 | 3.5 | 0.00 | 0.00 | 0.00 | 35 | 916.9 |
| 20260506070707 | 62 | 20 | 0.9 | 3.5 | 0.00 | 0.00 | 0.00 | 35 | 916.9 |
| 20260506070604 | 62 | 24 | 0.9 | 3.5 | 0.00 | 0.00 | 0.00 | 35 | 916.9 |
| 20260506070501 | 62 | 26 | 0.9 | 3.5 | 0.00 | 0.00 | 0.00 | 35 | 916.9 |
| 20260506070357 | 62 | 28 | 0.9 | 3.5 | 0.00 | 0.00 | 0.00 | 35 | 916.8 |
| 20260506070252 | 62 | 17 | 0.9 | 3.5 | 0.00 | 0.00 | 0.00 | 35 | 916.8 |
| 20260506070148 | 62 | 30 | 0.9 | 3.5 | 0.00 | 0.00 | 0.00 | 35 | 916.9 |
| 20260506062220 | 63 | 43 | 0.9 | 2.6 | 0.00 | 0.00 | 0.00 | 33 | 916.7 |
| 20260506062117 | 63 | 28 | 0.9 | 2.6 | 0.00 | 0.00 | 0.00 | 33 | 916.7 |
| 20260506061535 | 63 | 26 | 0.9 | 1.7 | 0.00 | 0.00 | 0.00 | 33 | 916.7 |
| 20260506061430 | 63 | 25 | 0.9 | 2.6 | 0.00 | 0.00 | 0.00 | 32 | 916.7 |
| 20260506061327 | 63 | 26 | 0.9 | 2.6 | 0.00 | 0.00 | 0.00 | 32 | 916.7 |
| 20260506061223 | 63 | 26 | 0.9 | 2.6 | 0.00 | 0.00 | 0.00 | 32 | 916.7 |
| 20260506061117 | 63 | 34 | 0.9 | 2.6 | 0.00 | 0.00 | 0.00 | 32 | 916.7 |
| 20260506060748 | 63 | 50 | 0.9 | 2.6 | 0.00 | 0.00 | 0.00 | 32 | 916.7 |
| 20260506060643 | 63 | 41 | 0.9 | 2.6 | 0.00 | 0.00 | 0.00 | 32 | 916.7 |
| 20260506060538 | 63 | 52 | 1.7 | 2.6 | 0.00 | 0.00 | 0.00 | 32 | 916.7 |
| 20260506060432 | 63 | 38 | 1.7 | 2.6 | 0.00 | 0.00 | 0.00 | 32 | 916.7 |
| 20260506060327 | 63 | 44 | 0.9 | 2.6 | 0.00 | 0.00 | 0.00 | 32 | 916.7 |
| 20260506060225 | 63 | 46 | 0.9 | 2.6 | 0.00 | 0.00 | 0.00 | 32 | 916.7 |
| 20260506060119 | 63 | 45 | 0.9 | 2.6 | 0.00 | 0.00 | 0.00 | 32 | 916.7 |
| 20260506051332 | 64 | 80 | 0.0 | 0.9 | 0.00 | 0.00 | 0.00 | 30 | 916.6 |
| 20260506051227 | 64 | 78 | 0.0 | 0.9 | 0.00 | 0.00 | 0.00 | 30 | 916.6 |
| 20260506051120 | 64 | 78 | 0.0 | 0.9 | 0.00 | 0.00 | 0.00 | 30 | 916.6 |
| 20260506051014 | 64 | 78 | 0.0 | 0.9 | 0.00 | 0.00 | 0.00 | 30 | 916.5 |
| 20260506050911 | 64 | 78 | 0.0 | 0.9 | 0.00 | 0.00 | 0.00 | 30 | 916.5 |
| 20260506050809 | 64 | 78 | 0.0 | 0.0 | 0.00 | 0.00 | 0.00 | 29 | 916.6 |
| 20260506050702 | 64 | 78 | 0.0 | 0.0 | 0.00 | 0.00 | 0.00 | 29 | 916.5 |
| 20260506050554 | 64 | 78 | 0.0 | 1.7 | 0.00 | 0.00 | 0.00 | 29 | 916.5 |
| 20260506050450 | 64 | 78 | 0.0 | 1.7 | 0.00 | 0.00 | 0.00 | 30 | 916.4 |
| 20260506050344 | 64 | 78 | 0.0 | 1.7 | 0.00 | 0.00 | 0.00 | 30 | 916.4 |
| 20260506050235 | 64 | 76 | 0.9 | 1.7 | 0.00 | 0.00 | 0.00 | 29 | 916.5 |
| 20260506050129 | 64 | 73 | 0.9 | 1.7 | 0.00 | 0.00 | 0.00 | 29 | 916.4 |
| 20260506045134 | 64 | 80 | 0.0 | 1.7 | 0.00 | 0.00 | 0.00 | 29 | 916.4 |
| 20260506045031 | 64 | 84 | 0.0 | 1.7 | 0.00 | 0.00 | 0.00 | 29 | 916.4 |
| 20260506044926 | 64 | 82 | 0.0 | 1.7 | 0.00 | 0.00 | 0.00 | 29 | 916.4 |
| 20260506044819 | 64 | 71 | 0.0 | 0.9 | 0.00 | 0.00 | 0.00 | 29 | 916.4 |
| 20260506044714 | 64 | 81 | 0.0 | 0.9 | 0.00 | 0.00 | 0.00 | 29 | 916.4 |
| 20260506044607 | 64 | 77 | 0.0 | 0.9 | 0.00 | 0.00 | 0.00 | 29 | 916.4 |
| 20260506044502 | 64 | 74 | 0.0 | 0.9 | 0.00 | 0.00 | 0.00 | 29 | 916.4 |
| 20260506044400 | 64 | 67 | 0.0 | 0.9 | 0.00 | 0.00 | 0.00 | 29 | 916.3 |
| 20260506044254 | 64 | 71 | 0.0 | 0.9 | 0.00 | 0.00 | 0.00 | 29 | 916.3 |
| 20260506044150 | 64 | 76 | 0.0 | 0.9 | 0.00 | 0.00 | 0.00 | 29 | 916.3 |
| 20260506044044 | 64 | 65 | 0.0 | 0.9 | 0.00 | 0.00 | 0.00 | 29 | 916.2 |
| 20260506043936 | 64 | 65 | 0.0 | 0.9 | 0.00 | 0.00 | 0.00 | 29 | 916.2 |
| 20260506043827 | 64 | 69 | 0.0 | 0.9 | 0.00 | 0.00 | 0.00 | 29 | 916.2 |
| 20260506043724 | 64 | 69 | 0.0 | 1.7 | 0.00 | 0.00 | 0.00 | 29 | 916.2 |
| 20260506043620 | 64 | 77 | 0.0 | 1.7 | 0.00 | 0.00 | 0.00 | 29 | 916.1 |
| 20260506043516 | 64 | 77 | 0.0 | 1.7 | 0.00 | 0.00 | 0.00 | 29 | 916.1 |
| 20260506043409 | 64 | 77 | 0.0 | 1.7 | 0.00 | 0.00 | 0.00 | 29 | 916.1 |
| 20260506043302 | 64 | 77 | 0.0 | 1.7 | 0.00 | 0.00 | 0.00 | 29 | 916.0 |
| 20260506043159 | 64 | 77 | 0.0 | 1.7 | 0.00 | 0.00 | 0.00 | 30 | 916.0 |
| 20260506042833 | 64 | 75 | 0.0 | 1.7 | 0.00 | 0.00 | 0.00 | 30 | 916.0 |
| 20260506042726 | 64 | 87 | 0.0 | 1.7 | 0.00 | 0.00 | 0.00 | 30 | 916.0 |
| 20260506042621 | 64 | 74 | 0.0 | 1.7 | 0.00 | 0.00 | 0.00 | 30 | 916.0 |
| 20260506042518 | 64 | 68 | 0.0 | 1.7 | 0.00 | 0.00 | 0.00 | 30 | 916.0 |
| 20260506042416 | 64 | 66 | 0.0 | 1.7 | 0.00 | 0.00 | 0.00 | 30 | 916.0 |
| 20260506042312 | 64 | 66 | 0.0 | 1.7 | 0.00 | 0.00 | 0.00 | 30 | 915.9 |
| 20260506042206 | 64 | 74 | 0.0 | 1.7 | 0.00 | 0.00 | 0.00 | 30 | 916.0 |
| 20260506042104 | 64 | 75 | 0.0 | 1.7 | 0.00 | 0.00 | 0.00 | 30 | 915.9 |
| 20260506041735 | 64 | 81 | 0.0 | 0.9 | 0.00 | 0.00 | 0.00 | 31 | 915.9 |
| 20260506041632 | 64 | 65 | 0.0 | 0.9 | 0.00 | 0.00 | 0.00 | 31 | 915.9 |
| 20260506041530 | 64 | 76 | 0.0 | 0.9 | 0.00 | 0.00 | 0.00 | 31 | 915.9 |
| 20260506041427 | 64 | 76 | 0.0 | 0.9 | 0.00 | 0.00 | 0.00 | 31 | 915.9 |
| 20260506041325 | 64 | 73 | 0.0 | 0.9 | 0.00 | 0.00 | 0.00 | 31 | 915.9 |
| 20260506041221 | 64 | 74 | 0.0 | 0.0 | 0.00 | 0.00 | 0.00 | 31 | 915.9 |
| 20260506041119 | 64 | 74 | 0.0 | 0.9 | 0.00 | 0.00 | 0.00 | 31 | 915.9 |
| 20260506041015 | 64 | 74 | 0.0 | 0.9 | 0.00 | 0.00 | 0.00 | 31 | 915.9 |
| 20260506040910 | 65 | 74 | 0.0 | 0.9 | 0.00 | 0.00 | 0.00 | 31 | 915.9 |
| 20260506040806 | 65 | 74 | 0.0 | 0.9 | 0.00 | 0.00 | 0.00 | 31 | 915.8 |
| 20260506040703 | 65 | 74 | 0.0 | 0.9 | 0.00 | 0.00 | 0.00 | 31 | 915.8 |
| 20260506040557 | 65 | 74 | 0.0 | 0.9 | 0.00 | 0.00 | 0.00 | 31 | 915.8 |
| 20260506040451 | 65 | 74 | 0.0 | 0.9 | 0.00 | 0.00 | 0.00 | 31 | 915.8 |
| 20260506040345 | 65 | 74 | 0.0 | 0.9 | 0.00 | 0.00 | 0.00 | 31 | 915.7 |
| 20260506040241 | 65 | 74 | 0.0 | 0.0 | 0.00 | 0.00 | 0.00 | 31 | 915.8 |
| 20260506035914 | 65 | 74 | 0.0 | 0.9 | 0.00 | 0.00 | 0.00 | 31 | 915.6 |
| 20260506035545 | 65 | 76 | 0.0 | 0.9 | 0.00 | 0.00 | 0.00 | 31 | 915.6 |
| 20260506035443 | 65 | 72 | 0.0 | 0.9 | 0.00 | 0.00 | 0.00 | 31 | 915.6 |
| 20260506035339 | 65 | 72 | 0.0 | 0.9 | 0.00 | 0.00 | 0.00 | 31 | 915.6 |
| 20260506035234 | 65 | 89 | 0.0 | 0.9 | 0.00 | 0.00 | 0.00 | 31 | 915.5 |
| 20260506035131 | 65 | 98 | 0.0 | 0.9 | 0.00 | 0.00 | 0.00 | 31 | 915.5 |
| 20260506034807 | 66 | 123 | 0.0 | 0.9 | 0.00 | 0.00 | 0.00 | 31 | 915.5 |
| 20260506034702 | 66 | 132 | 0.0 | 0.9 | 0.00 | 0.00 | 0.00 | 31 | 915.4 |
| 20260506034558 | 66 | 132 | 0.0 | 0.9 | 0.00 | 0.00 | 0.00 | 31 | 915.4 |
| 20260506034455 | 66 | 146 | 0.0 | 0.0 | 0.00 | 0.00 | 0.00 | 31 | 915.4 |
| 20260506034352 | 66 | 153 | 0.0 | 0.0 | 0.00 | 0.00 | 0.00 | 31 | 915.4 |
| 20260506034025 | 66 | 205 | 0.0 | 0.0 | 0.00 | 0.00 | 0.00 | 31 | 915.3 |
| 20260506033704 | 66 | 205 | 0.0 | 0.0 | 0.00 | 0.00 | 0.00 | 31 | 915.2 |
| 20260506033342 | 66 | 205 | 0.0 | 0.0 | 0.00 | 0.00 | 0.00 | 31 | 915.2 |
| 20260506033238 | 66 | 205 | 0.0 | 0.0 | 0.00 | 0.00 | 0.00 | 31 | 915.2 |
| 20260506033135 | 67 | 205 | 0.0 | 0.0 | 0.00 | 0.00 | 0.00 | 31 | 915.2 |
| 20260506033030 | 67 | 205 | 0.0 | 0.0 | 0.00 | 0.00 | 0.00 | 30 | 915.1 |
| 20260506032923 | 67 | 205 | 0.0 | 0.0 | 0.00 | 0.00 | 0.00 | 30 | 915.1 |
| 20260506032602 | 67 | 205 | 0.0 | 0.0 | 0.00 | 0.00 | 0.00 | 30 | 915.1 |
| 20260506032459 | 67 | 205 | 0.0 | 0.0 | 0.00 | 0.00 | 0.00 | 30 | 915.1 |
| 20260506032351 | 67 | 205 | 0.0 | 0.0 | 0.00 | 0.00 | 0.00 | 30 | 915.0 |
| 20260506031803 | 67 | 205 | 0.0 | 0.0 | 0.00 | 0.00 | 0.00 | 30 | 914.9 |
| 20260506031659 | 67 | 205 | 0.0 | 0.0 | 0.00 | 0.00 | 0.00 | 30 | 914.9 |
| 20260506031552 | 67 | 205 | 0.0 | 0.0 | 0.00 | 0.00 | 0.00 | 30 | 914.9 |
| 20260506031448 | 67 | 205 | 0.0 | 0.0 | 0.00 | 0.00 | 0.00 | 30 | 914.9 |
| 20260506031345 | 67 | 205 | 0.0 | 0.0 | 0.00 | 0.00 | 0.00 | 30 | 914.9 |
| 20260506030758 | 67 | 205 | 0.0 | 1.7 | 0.00 | 0.00 | 0.00 | 29 | 914.8 |
| 20260506030652 | 67 | 198 | 0.0 | 1.7 | 0.00 | 0.00 | 0.00 | 29 | 914.8 |
| 20260506030546 | 67 | 204 | 0.0 | 1.7 | 0.00 | 0.00 | 0.00 | 29 | 914.8 |
| 20260506030439 | 67 | 204 | 0.0 | 1.7 | 0.00 | 0.00 | 0.00 | 29 | 914.8 |
| 20260506030335 | 68 | 204 | 0.0 | 2.6 | 0.00 | 0.00 | 0.00 | 29 | 914.7 |
| 20260506030230 | 68 | 204 | 0.0 | 2.6 | 0.00 | 0.00 | 0.00 | 29 | 914.7 |
| 20260506030123 | 68 | 204 | 0.0 | 2.6 | 0.00 | 0.00 | 0.00 | 29 | 914.7 |
| 20260506030020 | 68 | 204 | 0.0 | 2.6 | 0.00 | 0.00 | 0.00 | 29 | 914.7 |
| 20260506025912 | 68 | 204 | 0.0 | 2.6 | 0.00 | 0.00 | 0.00 | 29 | 914.7 |
| 20260506025807 | 68 | 204 | 0.0 | 2.6 | 0.00 | 0.00 | 0.00 | 29 | 914.7 |
| 20260506025442 | 68 | 219 | 0.0 | 2.6 | 0.00 | 0.00 | 0.00 | 29 | 914.6 |
| 20260506025339 | 68 | 219 | 0.9 | 4.3 | 0.00 | 0.00 | 0.00 | 29 | 914.6 |
| 20260506025237 | 68 | 219 | 0.9 | 4.3 | 0.00 | 0.00 | 0.00 | 29 | 914.6 |
| 20260506025132 | 68 | 220 | 0.9 | 4.3 | 0.00 | 0.00 | 0.00 | 29 | 914.6 |
| 20260506025024 | 68 | 221 | 0.9 | 4.3 | 0.00 | 0.00 | 0.00 | 29 | 914.5 |
| 20260506024917 | 68 | 221 | 0.9 | 4.3 | 0.00 | 0.00 | 0.00 | 29 | 914.6 |
| 20260506024813 | 68 | 220 | 0.9 | 4.3 | 0.00 | 0.00 | 0.00 | 29 | 914.5 |
| 20260506024445 | 68 | 223 | 0.9 | 4.3 | 0.00 | 0.00 | 0.00 | 29 | 914.4 |
| 20260506024338 | 68 | 217 | 0.9 | 4.3 | 0.00 | 0.00 | 0.00 | 29 | 914.5 |
| 20260506024234 | 68 | 217 | 1.7 | 4.3 | 0.00 | 0.00 | 0.00 | 29 | 914.5 |
| 20260506024130 | 68 | 212 | 1.7 | 4.3 | 0.00 | 0.00 | 0.00 | 29 | 914.4 |
| 20260506024024 | 68 | 212 | 1.7 | 4.3 | 0.00 | 0.00 | 0.00 | 29 | 914.4 |
| 20260506023923 | 69 | 203 | 1.7 | 4.3 | 0.00 | 0.00 | 0.00 | 29 | 914.4 |
| 20260506023815 | 69 | 219 | 1.7 | 4.3 | 0.00 | 0.00 | 0.00 | 29 | 914.4 |
| 20260506023451 | 69 | 207 | 1.7 | 4.3 | 0.00 | 0.00 | 0.00 | 28 | 914.3 |
| 20260506023345 | 69 | 212 | 0.9 | 3.5 | 0.00 | 0.00 | 0.00 | 28 | 914.3 |
| 20260506023238 | 69 | 222 | 0.9 | 3.5 | 0.00 | 0.00 | 0.00 | 28 | 914.3 |
| 20260506023133 | 69 | 211 | 0.9 | 3.5 | 0.00 | 0.00 | 0.00 | 29 | 914.3 |
| 20260506023027 | 69 | 231 | 0.9 | 3.5 | 0.00 | 0.00 | 0.00 | 29 | 914.3 |
| 20260506022922 | 69 | 207 | 0.9 | 3.5 | 0.00 | 0.00 | 0.00 | 28 | 914.3 |
| 20260506022817 | 69 | 208 | 0.9 | 3.5 | 0.00 | 0.00 | 0.00 | 28 | 914.2 |
| 20260506022714 | 69 | 200 | 0.9 | 3.5 | 0.00 | 0.00 | 0.00 | 28 | 914.2 |
| 20260506022609 | 69 | 192 | 0.9 | 3.5 | 0.00 | 0.00 | 0.00 | 28 | 914.2 |
| 20260506022503 | 69 | 205 | 0.9 | 3.5 | 0.00 | 0.00 | 0.00 | 28 | 914.2 |
| 20260506022359 | 69 | 197 | 0.9 | 3.5 | 0.00 | 0.00 | 0.00 | 28 | 914.2 |
| 20260506022252 | 69 | 185 | 0.9 | 3.5 | 0.00 | 0.00 | 0.00 | 28 | 914.2 |
| 20260506022144 | 69 | 186 | 0.9 | 3.5 | 0.00 | 0.00 | 0.00 | 28 | 914.1 |
| 20260506022040 | 69 | 201 | 0.9 | 3.5 | 0.00 | 0.00 | 0.00 | 28 | 914.1 |
| 20260506021937 | 70 | 173 | 0.9 | 3.5 | 0.00 | 0.00 | 0.00 | 28 | 914.1 |
| 20260506021613 | 70 | 204 | 0.9 | 3.5 | 0.00 | 0.00 | 0.00 | 28 | 914.1 |
| 20260506021245 | 70 | 205 | 1.7 | 6.1 | 0.00 | 0.00 | 0.00 | 28 | 914.1 |
| 20260506020921 | 70 | 214 | 1.7 | 6.1 | 0.00 | 0.00 | 0.00 | 28 | 914.0 |
| 20260506020555 | 70 | 207 | 2.6 | 6.1 | 0.00 | 0.00 | 0.00 | 28 | 914.0 |
| 20260506020449 | 70 | 196 | 2.6 | 6.1 | 0.00 | 0.00 | 0.00 | 28 | 914.0 |
| 20260506020347 | 70 | 212 | 3.5 | 6.1 | 0.00 | 0.00 | 0.00 | 27 | 914.0 |
| 20260506015540 | 71 | 213 | 2.6 | 6.1 | 0.00 | 0.00 | 0.00 | 27 | 913.8 |
| 20260506015219 | 72 | 216 | 1.7 | 5.2 | 0.00 | 0.00 | 0.00 | 27 | 913.8 |
| 20260506015117 | 72 | 223 | 1.7 | 5.2 | 0.00 | 0.00 | 0.00 | 27 | 913.8 |
| 20260506015015 | 72 | 176 | 2.6 | 5.2 | 0.00 | 0.00 | 0.00 | 27 | 913.8 |
| 20260506014912 | 72 | 202 | 2.6 | 5.2 | 0.00 | 0.00 | 0.00 | 27 | 913.8 |
| 20260506014804 | 72 | 217 | 2.6 | 5.2 | 0.00 | 0.00 | 0.00 | 26 | 913.8 |
| 20260506014657 | 72 | 194 | 2.6 | 5.2 | 0.00 | 0.00 | 0.00 | 26 | 913.8 |
| 20260506014552 | 72 | 213 | 2.6 | 5.2 | 0.00 | 0.00 | 0.00 | 26 | 913.8 |
| 20260506014445 | 72 | 204 | 2.6 | 5.2 | 0.00 | 0.00 | 0.00 | 27 | 913.8 |
| 20260506014341 | 72 | 200 | 2.6 | 5.2 | 0.00 | 0.00 | 0.00 | 26 | 913.8 |
| 20260506014239 | 72 | 195 | 2.6 | 5.2 | 0.00 | 0.00 | 0.00 | 26 | 913.8 |
| 20260506014133 | 72 | 217 | 2.6 | 5.2 | 0.00 | 0.00 | 0.00 | 26 | 913.7 |
| 20260506014027 | 72 | 207 | 2.6 | 5.2 | 0.00 | 0.00 | 0.00 | 26 | 913.8 |
| 20260506013920 | 72 | 212 | 1.7 | 5.2 | 0.00 | 0.00 | 0.00 | 26 | 913.7 |
| 20260506013811 | 72 | 234 | 1.7 | 6.1 | 0.00 | 0.00 | 0.00 | 27 | 913.8 |
| 20260506013444 | 72 | 187 | 1.7 | 6.1 | 0.00 | 0.00 | 0.00 | 27 | 913.7 |
| 20260506013340 | 72 | 224 | 1.7 | 6.1 | 0.00 | 0.00 | 0.00 | 27 | 913.7 |
| 20260506013236 | 72 | 171 | 1.7 | 6.1 | 0.00 | 0.00 | 0.00 | 27 | 913.7 |
| 20260506013129 | 73 | 194 | 1.7 | 6.1 | 0.00 | 0.00 | 0.00 | 26 | 913.7 |
| 20260506013028 | 73 | 212 | 1.7 | 6.1 | 0.00 | 0.00 | 0.00 | 26 | 913.7 |
| 20260506012707 | 73 | 184 | 1.7 | 6.1 | 0.00 | 0.00 | 0.00 | 26 | 913.6 |
| 20260506012600 | 73 | 216 | 1.7 | 6.1 | 0.00 | 0.00 | 0.00 | 27 | 913.7 |
| 20260506012454 | 73 | 196 | 1.7 | 6.1 | 0.00 | 0.00 | 0.00 | 27 | 913.7 |
| 20260506012351 | 73 | 221 | 1.7 | 6.1 | 0.00 | 0.00 | 0.00 | 26 | 913.6 |
| 20260506012027 | 73 | 229 | 1.7 | 6.1 | 0.00 | 0.00 | 0.00 | 26 | 913.7 |
| 20260506011922 | 73 | 232 | 1.7 | 6.1 | 0.00 | 0.00 | 0.00 | 26 | 913.6 |
| 20260506011818 | 73 | 250 | 1.7 | 5.2 | 0.00 | 0.00 | 0.00 | 27 | 913.7 |
| 20260506011715 | 73 | 193 | 1.7 | 5.2 | 0.00 | 0.00 | 0.00 | 26 | 913.6 |
| 20260506011611 | 73 | 219 | 1.7 | 5.2 | 0.00 | 0.00 | 0.00 | 27 | 913.6 |
| 20260506011506 | 73 | 213 | 1.7 | 5.2 | 0.00 | 0.00 | 0.00 | 27 | 913.6 |
| 20260506011358 | 73 | 204 | 1.7 | 5.2 | 0.00 | 0.00 | 0.00 | 26 | 913.7 |
| 20260506011253 | 73 | 213 | 2.6 | 5.2 | 0.00 | 0.00 | 0.00 | 27 | 913.7 |
| 20260506011146 | 73 | 202 | 2.6 | 5.2 | 0.00 | 0.00 | 0.00 | 26 | 913.7 |
| 20260506011041 | 73 | 201 | 2.6 | 7.0 | 0.00 | 0.00 | 0.00 | 26 | 913.8 |
| 20260506010933 | 73 | 219 | 1.7 | 7.0 | 0.00 | 0.00 | 0.00 | 26 | 913.7 |
| 20260506010827 | 73 | 200 | 1.7 | 7.0 | 0.00 | 0.00 | 0.00 | 27 | 913.8 |
| 20260506010721 | 73 | 227 | 1.7 | 7.0 | 0.00 | 0.00 | 0.00 | 26 | 913.7 |
| 20260506010615 | 73 | 227 | 1.7 | 7.0 | 0.00 | 0.00 | 0.00 | 27 | 913.7 |
| 20260506010506 | 73 | 190 | 1.7 | 7.0 | 0.00 | 0.00 | 0.00 | 26 | 913.8 |
| 20260506010401 | 73 | 167 | 1.7 | 7.0 | 0.00 | 0.00 | 0.00 | 26 | 913.7 |
| 20260506010254 | 73 | 179 | 1.7 | 7.0 | 0.00 | 0.00 | 0.00 | 26 | 913.7 |
| 20260506010152 | 73 | 196 | 2.6 | 7.0 | 0.00 | 0.00 | 0.00 | 26 | 913.7 |
| 20260506010047 | 73 | 169 | 2.6 | 7.0 | 0.00 | 0.00 | 0.00 | 26 | 913.7 |
| 20260506005940 | 73 | 182 | 2.6 | 7.0 | 0.00 | 0.00 | 0.00 | 26 | 913.7 |
| 20260506005835 | 73 | 169 | 2.6 | 7.0 | 0.00 | 0.00 | 0.00 | 26 | 913.7 |
| 20260506005727 | 73 | 176 | 2.6 | 7.0 | 0.00 | 0.00 | 0.00 | 26 | 913.7 |
| 20260506005622 | 73 | 190 | 2.6 | 7.0 | 0.00 | 0.00 | 0.00 | 26 | 913.7 |
| 20260506005514 | 73 | 201 | 2.6 | 7.0 | 0.00 | 0.00 | 0.00 | 26 | 913.7 |
| 20260506005408 | 73 | 218 | 2.6 | 7.0 | 0.00 | 0.00 | 0.00 | 26 | 913.7 |
| 20260506005040 | 73 | 188 | 0.9 | 5.2 | 0.00 | 0.00 | 0.00 | 26 | 913.7 |
| 20260506004938 | 73 | 211 | 0.9 | 5.2 | 0.00 | 0.00 | 0.00 | 26 | 913.8 |
| 20260506004836 | 73 | 198 | 0.9 | 5.2 | 0.00 | 0.00 | 0.00 | 26 | 913.7 |
| 20260506004730 | 73 | 165 | 0.9 | 5.2 | 0.00 | 0.00 | 0.00 | 27 | 913.7 |
| 20260506004627 | 73 | 180 | 0.9 | 5.2 | 0.00 | 0.00 | 0.00 | 27 | 913.7 |
| 20260506004524 | 73 | 165 | 0.9 | 5.2 | 0.00 | 0.00 | 0.00 | 26 | 913.7 |
| 20260506003939 | 73 | 206 | 1.7 | 5.2 | 0.00 | 0.00 | 0.00 | 26 | 913.7 |
| 20260506003837 | 73 | 182 | 1.7 | 5.2 | 0.00 | 0.00 | 0.00 | 26 | 913.7 |
| 20260506003730 | 73 | 153 | 1.7 | 5.2 | 0.00 | 0.00 | 0.00 | 26 | 913.6 |
| 20260506003404 | 74 | 205 | 1.7 | 5.2 | 0.00 | 0.00 | 0.00 | 26 | 913.7 |
| 20260506003300 | 74 | 186 | 1.7 | 5.2 | 0.00 | 0.00 | 0.00 | 26 | 913.6 |
| 20260506003155 | 74 | 165 | 1.7 | 5.2 | 0.00 | 0.00 | 0.00 | 26 | 913.6 |
| 20260506003053 | 74 | 160 | 1.7 | 5.2 | 0.00 | 0.00 | 0.00 | 26 | 913.6 |
| 20260506002726 | 74 | 279 | 1.7 | 7.0 | 0.00 | 0.00 | 0.00 | 26 | 913.6 |
| 20260506002619 | 73 | 223 | 2.6 | 7.0 | 0.00 | 0.00 | 0.00 | 26 | 913.6 |
| 20260506002512 | 73 | 240 | 2.6 | 7.0 | 0.00 | 0.00 | 0.00 | 26 | 913.5 |
| 20260506002409 | 73 | 215 | 2.6 | 7.0 | 0.00 | 0.00 | 0.00 | 26 | 913.5 |
| 20260506002306 | 73 | 200 | 2.6 | 7.0 | 0.00 | 0.00 | 0.00 | 26 | 913.5 |
| 20260506002203 | 74 | 165 | 2.6 | 7.0 | 0.00 | 0.00 | 0.00 | 26 | 913.5 |
| 20260506001842 | 74 | 155 | 2.6 | 10.4 | 0.00 | 0.00 | 0.00 | 26 | 913.5 |
| 20260506001518 | 74 | 174 | 2.6 | 10.4 | 0.00 | 0.00 | 0.00 | 26 | 913.4 |
| 20260506001149 | 74 | 118 | 3.5 | 10.4 | 0.00 | 0.00 | 0.00 | 25 | 913.4 |
| 20260506001045 | 74 | 144 | 4.3 | 10.4 | 0.00 | 0.00 | 0.00 | 26 | 913.4 |
| 20260506000939 | 74 | 180 | 4.3 | 10.4 | 0.00 | 0.00 | 0.00 | 26 | 913.4 |
| 20260506000616 | 74 | 216 | 5.2 | 10.4 | 0.00 | 0.00 | 0.00 | 26 | 913.5 |
| 20260506000510 | 74 | 219 | 5.2 | 10.4 | 0.00 | 0.00 | 0.00 | 26 | 913.5 |
| 20260506000404 | 74 | 211 | 5.2 | 10.4 | 0.00 | 0.00 | 0.00 | 26 | 913.5 |
| 20260506000302 | 74 | 232 | 4.3 | 10.4 | 0.00 | 0.00 | 0.00 | 26 | 913.5 |
| 20260506000156 | 74 | 240 | 4.3 | 10.4 | 0.00 | 0.00 | 0.00 | 26 | 913.5 |
| 20260506000048 | 74 | 217 | 3.5 | 10.4 | 0.00 | 0.00 | 0.00 | 26 | 913.4 |
| 20260505235944 | 74 | 222 | 2.6 | 10.4 | 0.00 | 0.00 | 0.00 | 26 | 913.5 |
| 20260505235842 | 74 | 202 | 2.6 | 9.6 | 0.00 | 0.00 | 0.00 | 26 | 913.5 |
| 20260505235736 | 74 | 200 | 2.6 | 9.6 | 0.00 | 0.00 | 0.00 | 26 | 913.4 |
| 20260505235632 | 74 | 221 | 2.6 | 9.6 | 0.00 | 0.00 | 0.00 | 26 | 913.5 |
| 20260505235525 | 74 | 222 | 2.6 | 9.6 | 0.00 | 0.00 | 0.00 | 26 | 913.4 |
| 20260505235203 | 74 | 205 | 3.5 | 9.6 | 0.00 | 0.00 | 0.00 | 26 | 913.4 |
| 20260505235100 | 74 | 202 | 3.5 | 9.6 | 0.00 | 0.00 | 0.00 | 26 | 913.4 |
| 20260505234953 | 74 | 216 | 3.5 | 9.6 | 0.00 | 0.00 | 0.00 | 26 | 913.4 |
| 20260505234848 | 74 | 227 | 3.5 | 9.6 | 0.00 | 0.00 | 0.00 | 26 | 913.4 |
| 20260505234742 | 74 | 180 | 3.5 | 9.6 | 0.00 | 0.00 | 0.00 | 26 | 913.5 |
| 20260505234636 | 74 | 198 | 3.5 | 9.6 | 0.00 | 0.00 | 0.00 | 26 | 913.4 |
| 20260505234532 | 74 | 241 | 2.6 | 9.6 | 0.00 | 0.00 | 0.00 | 26 | 913.4 |
| 20260505234428 | 74 | 214 | 2.6 | 9.6 | 0.00 | 0.00 | 0.00 | 26 | 913.4 |
| 20260505234324 | 74 | 221 | 2.6 | 9.6 | 0.00 | 0.00 | 0.00 | 26 | 913.4 |
| 20260505234000 | 74 | 203 | 3.5 | 7.0 | 0.00 | 0.00 | 0.00 | 26 | 913.4 |
| 20260505233853 | 74 | 150 | 3.5 | 7.0 | 0.00 | 0.00 | 0.00 | 26 | 913.4 |
| 20260505233749 | 74 | 187 | 3.5 | 7.0 | 0.00 | 0.00 | 0.00 | 26 | 913.4 |
| 20260505233646 | 74 | 200 | 2.6 | 7.0 | 0.00 | 0.00 | 0.00 | 26 | 913.4 |
| 20260505233544 | 74 | 192 | 2.6 | 7.0 | 0.00 | 0.00 | 0.00 | 26 | 913.3 |
| 20260505233437 | 74 | 236 | 2.6 | 7.0 | 0.00 | 0.00 | 0.00 | 26 | 913.4 |
| 20260505233113 | 74 | 207 | 1.7 | 9.6 | 0.00 | 0.00 | 0.00 | 26 | 913.3 |
| 20260505232749 | 74 | 273 | 1.7 | 9.6 | 0.00 | 0.00 | 0.00 | 26 | 913.3 |
| 20260505232643 | 74 | 27 | 1.7 | 9.6 | 0.00 | 0.00 | 0.00 | 25 | 913.3 |
| 20260505232538 | 74 | 0 | 2.6 | 9.6 | 0.00 | 0.00 | 0.00 | 25 | 913.4 |
| 20260505232213 | 74 | 240 | 2.6 | 9.6 | 0.00 | 0.00 | 0.00 | 26 | 913.3 |
| 20260505231847 | 74 | 243 | 2.6 | 9.6 | 0.00 | 0.00 | 0.00 | 26 | 913.3 |
| 20260505231521 | 74 | 232 | 1.7 | 9.6 | 0.00 | 0.00 | 0.00 | 26 | 913.4 |
| 20260505231415 | 74 | 309 | 0.9 | 9.6 | 0.00 | 0.00 | 0.00 | 27 | 913.4 |
| 20260505231311 | 74 | 258 | 1.7 | 9.6 | 0.00 | 0.00 | 0.00 | 27 | 913.5 |
| 20260505231204 | 73 | 243 | 1.7 | 9.6 | 0.00 | 0.00 | 0.00 | 27 | 913.5 |
| 20260505231058 | 73 | 213 | 1.7 | 7.8 | 0.00 | 0.00 | 0.00 | 27 | 913.5 |
| 20260505230951 | 73 | 189 | 1.7 | 7.8 | 0.00 | 0.00 | 0.00 | 27 | 913.4 |
| 20260505230845 | 73 | 184 | 1.7 | 7.8 | 0.00 | 0.00 | 0.00 | 27 | 913.5 |
| 20260505230738 | 73 | 184 | 1.7 | 7.8 | 0.00 | 0.00 | 0.00 | 27 | 913.5 |
| 20260505230634 | 73 | 221 | 1.7 | 7.8 | 0.00 | 0.00 | 0.00 | 27 | 913.6 |
| 20260505230527 | 73 | 143 | 1.7 | 7.8 | 0.00 | 0.00 | 0.00 | 27 | 913.6 |
| 20260505230425 | 73 | 183 | 1.7 | 7.8 | 0.00 | 0.00 | 0.00 | 27 | 913.6 |
| 20260505230320 | 73 | 241 | 1.7 | 7.8 | 0.00 | 0.00 | 0.00 | 27 | 913.6 |
| 20260505230214 | 73 | 223 | 1.7 | 7.8 | 0.00 | 0.00 | 0.00 | 27 | 913.6 |
| 20260505230107 | 73 | 169 | 1.7 | 7.8 | 0.00 | 0.00 | 0.00 | 28 | 913.7 |
| 20260505230004 | 73 | 144 | 1.7 | 7.8 | 0.00 | 0.00 | 0.00 | 27 | 913.7 |
| 20260505225638 | 73 | 156 | 2.6 | 7.8 | 0.00 | 0.00 | 0.00 | 27 | 913.7 |
| 20260505225531 | 73 | 171 | 2.6 | 7.8 | 0.00 | 0.00 | 0.00 | 27 | 913.7 |
| 20260505225424 | 73 | 187 | 1.7 | 7.0 | 0.00 | 0.00 | 0.00 | 27 | 913.7 |
| 20260505225319 | 73 | 163 | 1.7 | 7.0 | 0.00 | 0.00 | 0.00 | 27 | 913.7 |
| 20260505225216 | 73 | 193 | 1.7 | 7.0 | 0.00 | 0.00 | 0.00 | 28 | 913.7 |
| 20260505225109 | 73 | 152 | 1.7 | 7.0 | 0.00 | 0.00 | 0.00 | 27 | 913.7 |
| 20260505225006 | 73 | 190 | 1.7 | 7.0 | 0.00 | 0.00 | 0.00 | 27 | 913.7 |
| 20260505224904 | 73 | 161 | 1.7 | 7.0 | 0.00 | 0.00 | 0.00 | 27 | 913.7 |
| 20260505224758 | 73 | 222 | 0.9 | 7.0 | 0.00 | 0.00 | 0.00 | 27 | 913.7 |
| 20260505224651 | 72 | 159 | 0.9 | 7.0 | 0.00 | 0.00 | 0.00 | 28 | 913.7 |
| 20260505224544 | 72 | 159 | 1.7 | 7.0 | 0.00 | 0.00 | 0.00 | 28 | 913.7 |
| 20260505224442 | 72 | 194 | 1.7 | 7.0 | 0.00 | 0.00 | 0.00 | 27 | 913.7 |
| 20260505223858 | 72 | 168 | 1.7 | 7.0 | 0.00 | 0.00 | 0.00 | 28 | 913.8 |
| 20260505223530 | 72 | 9 | 1.7 | 7.0 | 0.00 | 0.00 | 0.00 | 27 | 913.8 |
| 20260505222945 | 73 | 13 | 0.9 | 3.5 | 0.00 | 0.00 | 0.00 | 27 | 913.9 |
| 20260505222616 | 73 | 46 | 0.9 | 3.5 | 0.00 | 0.00 | 0.00 | 27 | 914.0 |
| 20260505222509 | 73 | 159 | 0.9 | 3.5 | 0.00 | 0.00 | 0.00 | 27 | 914.0 |
| 20260505222404 | 73 | 140 | 0.9 | 3.5 | 0.00 | 0.00 | 0.00 | 27 | 914.0 |
| 20260505222258 | 73 | 170 | 0.9 | 3.5 | 0.00 | 0.00 | 0.00 | 27 | 914.0 |
| 20260505222153 | 72 | 89 | 0.9 | 4.3 | 0.00 | 0.00 | 0.00 | 27 | 914.0 |
| 20260505222046 | 72 | 170 | 0.9 | 4.3 | 0.00 | 0.00 | 0.00 | 28 | 914.0 |
| 20260505221944 | 72 | 130 | 0.9 | 4.3 | 0.00 | 0.00 | 0.00 | 27 | 914.0 |
| 20260505221841 | 72 | 150 | 0.9 | 4.3 | 0.00 | 0.00 | 0.00 | 27 | 914.0 |
| 20260505221520 | 73 | 137 | 0.9 | 4.3 | 0.00 | 0.00 | 0.00 | 27 | 914.1 |
| 20260505221419 | 73 | 138 | 0.9 | 4.3 | 0.00 | 0.00 | 0.00 | 27 | 914.0 |
| 20260505221312 | 73 | 200 | 0.0 | 4.3 | 0.00 | 0.00 | 0.00 | 27 | 914.0 |
| 20260505221207 | 73 | 169 | 0.9 | 4.3 | 0.00 | 0.00 | 0.00 | 27 | 914.0 |
| 20260505220840 | 73 | 124 | 0.9 | 5.2 | 0.00 | 0.00 | 0.00 | 27 | 914.1 |
| 20260505220733 | 73 | 81 | 0.9 | 5.2 | 0.00 | 0.00 | 0.00 | 26 | 914.1 |
| 20260505220627 | 73 | 119 | 0.9 | 5.2 | 0.00 | 0.00 | 0.00 | 27 | 914.1 |
| 20260505220524 | 73 | 121 | 0.9 | 5.2 | 0.00 | 0.00 | 0.00 | 27 | 914.2 |
| 20260505220419 | 74 | 132 | 0.9 | 5.2 | 0.00 | 0.00 | 0.00 | 26 | 914.1 |
| 20260505220313 | 74 | 135 | 0.9 | 5.2 | 0.00 | 0.00 | 0.00 | 26 | 914.2 |
| 20260505220207 | 74 | 148 | 0.9 | 5.2 | 0.00 | 0.00 | 0.00 | 27 | 914.2 |
| 20260505220104 | 74 | 278 | 0.9 | 5.2 | 0.00 | 0.00 | 0.00 | 27 | 914.2 |
| 20260505220001 | 73 | 168 | 0.9 | 5.2 | 0.00 | 0.00 | 0.00 | 27 | 914.2 |
| 20260505215859 | 73 | 158 | 0.9 | 5.2 | 0.00 | 0.00 | 0.00 | 27 | 914.2 |
| 20260505215752 | 73 | 169 | 0.9 | 5.2 | 0.00 | 0.00 | 0.00 | 27 | 914.2 |
| 20260505215647 | 73 | 134 | 0.9 | 5.2 | 0.00 | 0.00 | 0.00 | 27 | 914.3 |
| 20260505215539 | 73 | 157 | 0.9 | 5.2 | 0.00 | 0.00 | 0.00 | 27 | 914.3 |
| 20260505215435 | 73 | 139 | 0.9 | 5.2 | 0.00 | 0.00 | 0.00 | 27 | 914.3 |
| 20260505215331 | 73 | 158 | 0.0 | 5.2 | 0.00 | 0.00 | 0.00 | 27 | 914.3 |
| 20260505215225 | 73 | 163 | 0.0 | 5.2 | 0.00 | 0.00 | 0.00 | 28 | 914.4 |
| 20260505215120 | 73 | 159 | 0.0 | 1.7 | 0.00 | 0.00 | 0.00 | 27 | 914.4 |
| 20260505215015 | 73 | 146 | 0.0 | 7.0 | 0.00 | 0.00 | 0.00 | 28 | 914.3 |
| 20260505214908 | 73 | 96 | 0.0 | 7.0 | 0.00 | 0.00 | 0.00 | 27 | 914.4 |
| 20260505214804 | 73 | 270 | 0.0 | 7.0 | 0.00 | 0.00 | 0.00 | 28 | 914.4 |
| 20260505214659 | 73 | 246 | 0.9 | 7.0 | 0.00 | 0.00 | 0.00 | 28 | 914.4 |
| 20260505214336 | 72 | 179 | 0.9 | 7.0 | 0.00 | 0.00 | 0.00 | 27 | 914.4 |
| 20260505214232 | 72 | 54 | 0.9 | 7.0 | 0.00 | 0.00 | 0.00 | 27 | 914.4 |
| 20260505214125 | 72 | 334 | 0.9 | 7.0 | 0.00 | 0.00 | 0.00 | 27 | 914.4 |
| 20260505213801 | 72 | 278 | 1.7 | 7.0 | 0.00 | 0.00 | 0.00 | 28 | 914.5 |
| 20260505213658 | 72 | 315 | 0.9 | 7.0 | 0.00 | 0.00 | 0.00 | 28 | 914.5 |
| 20260505213550 | 72 | 355 | 0.9 | 7.0 | 0.00 | 0.00 | 0.00 | 28 | 914.6 |
| 20260505213004 | 73 | 170 | 0.0 | 7.0 | 0.00 | 0.00 | 0.00 | 27 | 914.5 |
| 20260505212903 | 73 | 159 | 0.0 | 7.0 | 0.00 | 0.00 | 0.00 | 27 | 914.6 |
| 20260505212755 | 73 | 147 | 0.0 | 7.0 | 0.00 | 0.00 | 0.00 | 27 | 914.6 |
| 20260505212650 | 73 | 192 | 0.0 | 7.0 | 0.00 | 0.00 | 0.00 | 27 | 914.6 |
| 20260505212548 | 73 | 204 | 0.9 | 7.0 | 0.00 | 0.00 | 0.00 | 28 | 914.6 |
| 20260505212441 | 73 | 205 | 0.9 | 7.0 | 0.00 | 0.00 | 0.00 | 28 | 914.6 |
| 20260505212337 | 73 | 209 | 0.9 | 7.0 | 0.00 | 0.00 | 0.00 | 27 | 914.7 |
| 20260505212235 | 73 | 245 | 1.7 | 7.0 | 0.00 | 0.00 | 0.00 | 28 | 914.7 |
| 20260505212130 | 73 | 217 | 1.7 | 7.0 | 0.00 | 0.00 | 0.00 | 28 | 914.7 |
| 20260505212027 | 73 | 279 | 1.7 | 7.0 | 0.00 | 0.00 | 0.00 | 28 | 914.7 |
| 20260505211923 | 73 | 203 | 1.7 | 7.0 | 0.00 | 0.00 | 0.00 | 28 | 914.7 |
| 20260505211819 | 72 | 214 | 1.7 | 7.0 | 0.00 | 0.00 | 0.00 | 28 | 914.7 |
| 20260505211455 | 72 | 265 | 1.7 | 7.0 | 0.00 | 0.00 | 0.00 | 28 | 914.7 |
| 20260505211348 | 72 | 234 | 1.7 | 7.0 | 0.00 | 0.00 | 0.00 | 28 | 914.7 |
| 20260505211242 | 72 | 225 | 1.7 | 6.1 | 0.00 | 0.00 | 0.00 | 28 | 914.7 |
| 20260505211136 | 72 | 255 | 1.7 | 6.1 | 0.00 | 0.00 | 0.00 | 28 | 914.7 |
| 20260505211031 | 72 | 232 | 0.9 | 6.1 | 0.00 | 0.00 | 0.00 | 28 | 914.8 |
| 20260505210925 | 72 | 178 | 1.7 | 6.1 | 0.00 | 0.00 | 0.00 | 28 | 914.7 |
| 20260505210556 | 72 | 150 | 1.7 | 5.2 | 0.00 | 0.00 | 0.00 | 28 | 914.7 |
| 20260505210453 | 71 | 196 | 1.7 | 5.2 | 0.00 | 0.00 | 0.00 | 28 | 914.7 |
| 20260505210348 | 71 | 175 | 2.6 | 10.4 | 0.00 | 0.00 | 0.00 | 28 | 914.7 |
| 20260505210026 | 71 | 158 | 3.5 | 10.4 | 0.00 | 0.00 | 0.00 | 29 | 914.7 |
| 20260505205658 | 71 | 198 | 3.5 | 10.4 | 0.00 | 0.00 | 0.00 | 29 | 914.8 |
| 20260505205554 | 71 | 214 | 3.5 | 10.4 | 0.00 | 0.00 | 0.00 | 29 | 914.8 |
| 20260505205447 | 71 | 208 | 3.5 | 10.4 | 0.00 | 0.00 | 0.00 | 29 | 914.7 |
| 20260505205343 | 71 | 253 | 4.3 | 10.4 | 0.00 | 0.00 | 0.00 | 28 | 914.8 |
| 20260505205240 | 71 | 237 | 4.3 | 10.4 | 0.00 | 0.00 | 0.00 | 28 | 914.8 |
| 20260505205133 | 71 | 214 | 4.3 | 10.4 | 0.00 | 0.00 | 0.00 | 29 | 914.8 |
| 20260505205028 | 71 | 204 | 4.3 | 10.4 | 0.00 | 0.00 | 0.00 | 29 | 914.7 |
| 20260505204700 | 71 | 175 | 3.5 | 10.4 | 0.00 | 0.00 | 0.00 | 28 | 914.7 |
| 20260505204552 | 71 | 254 | 3.5 | 10.4 | 0.00 | 0.00 | 0.00 | 28 | 914.7 |
| 20260505204447 | 71 | 223 | 2.6 | 10.4 | 0.00 | 0.00 | 0.00 | 28 | 914.7 |
| 20260505204123 | 71 | 230 | 1.7 | 7.0 | 0.00 | 0.00 | 0.00 | 30 | 914.7 |
| 20260505204015 | 71 | 210 | 0.9 | 6.1 | 0.00 | 0.00 | 0.00 | 30 | 914.7 |
| 20260505203911 | 71 | 248 | 0.9 | 6.1 | 0.00 | 0.00 | 0.00 | 30 | 914.7 |
| 20260505203804 | 70 | 185 | 0.9 | 4.3 | 0.00 | 0.00 | 0.00 | 30 | 914.8 |
| 20260505203701 | 70 | 209 | 0.9 | 4.3 | 0.00 | 0.00 | 0.00 | 30 | 914.8 |
| 20260505203559 | 70 | 215 | 0.9 | 4.3 | 0.00 | 0.00 | 0.00 | 30 | 914.7 |
| 20260505203454 | 70 | 214 | 0.9 | 4.3 | 0.00 | 0.00 | 0.00 | 31 | 914.8 |
| 20260505203347 | 70 | 235 | 0.9 | 4.3 | 0.00 | 0.00 | 0.00 | 31 | 914.8 |
| 20260505203245 | 69 | 205 | 0.9 | 4.3 | 0.00 | 0.00 | 0.00 | 31 | 914.8 |
| 20260505202916 | 69 | 109 | 0.9 | 4.3 | 0.00 | 0.00 | 0.00 | 30 | 914.8 |
| 20260505202814 | 69 | 44 | 0.9 | 4.3 | 0.00 | 0.00 | 0.00 | 30 | 914.8 |
| 20260505202710 | 69 | 84 | 0.9 | 4.3 | 0.00 | 0.00 | 0.00 | 30 | 914.8 |
| 20260505202602 | 69 | 42 | 0.9 | 4.3 | 0.00 | 0.00 | 0.00 | 31 | 914.9 |
| 20260505202454 | 69 | 173 | 0.9 | 4.3 | 0.00 | 0.00 | 0.00 | 31 | 914.9 |
| 20260505202351 | 69 | 174 | 0.9 | 4.3 | 0.00 | 0.00 | 0.00 | 31 | 914.9 |
| 20260505202246 | 69 | 142 | 1.7 | 4.3 | 0.00 | 0.00 | 0.00 | 31 | 914.8 |
| 20260505202140 | 69 | 148 | 1.7 | 4.3 | 0.00 | 0.00 | 0.00 | 30 | 914.9 |
| 20260505202035 | 69 | 153 | 0.9 | 4.3 | 0.00 | 0.00 | 0.00 | 31 | 914.8 |
| 20260505201929 | 69 | 97 | 0.9 | 3.5 | 0.00 | 0.00 | 0.00 | 31 | 914.8 |
| 20260505201602 | 69 | 169 | 0.9 | 3.5 | 0.00 | 0.00 | 0.00 | 30 | 914.9 |
| 20260505201454 | 69 | 206 | 0.9 | 3.5 | 0.00 | 0.00 | 0.00 | 30 | 914.9 |
| 20260505201352 | 69 | 175 | 0.9 | 3.5 | 0.00 | 0.00 | 0.00 | 30 | 914.9 |
| 20260505201248 | 69 | 187 | 0.9 | 7.8 | 0.00 | 0.00 | 0.00 | 30 | 914.9 |
| 20260505201146 | 69 | 159 | 0.9 | 7.8 | 0.00 | 0.00 | 0.00 | 30 | 914.9 |
| 20260505200823 | 69 | 262 | 0.9 | 7.8 | 0.00 | 0.00 | 0.00 | 30 | 914.9 |
| 20260505200459 | 70 | 14 | 1.7 | 7.8 | 0.00 | 0.00 | 0.00 | 30 | 914.9 |
| 20260505200354 | 70 | 309 | 2.6 | 7.8 | 0.00 | 0.00 | 0.00 | 30 | 914.9 |
| 20260505200252 | 69 | 101 | 2.6 | 7.8 | 0.00 | 0.00 | 0.00 | 31 | 915.0 |
| 20260505200145 | 69 | 271 | 2.6 | 7.8 | 0.00 | 0.00 | 0.00 | 30 | 914.9 |
| 20260505200039 | 69 | 180 | 3.5 | 7.8 | 0.00 | 0.00 | 0.00 | 30 | 915.1 |
| 20260505195934 | 70 | 161 | 3.5 | 7.8 | 0.00 | 0.00 | 0.00 | 30 | 915.0 |
| 20260505195830 | 70 | 164 | 3.5 | 7.8 | 0.00 | 0.00 | 0.00 | 30 | 915.0 |
| 20260505195726 | 70 | 223 | 3.5 | 7.8 | 0.00 | 0.00 | 0.00 | 30 | 915.0 |
| 20260505195403 | 70 | 198 | 2.6 | 7.8 | 0.00 | 0.00 | 0.00 | 29 | 915.1 |
| 20260505195259 | 70 | 244 | 1.7 | 7.8 | 0.00 | 0.00 | 0.00 | 29 | 915.1 |
| 20260505195155 | 70 | 182 | 1.7 | 5.2 | 0.00 | 0.00 | 0.00 | 29 | 915.1 |
| 20260505195049 | 70 | 157 | 1.7 | 5.2 | 0.00 | 0.00 | 0.00 | 29 | 915.1 |
| 20260505194941 | 70 | 194 | 1.7 | 5.2 | 0.00 | 0.00 | 0.00 | 29 | 915.1 |
| 20260505194837 | 70 | 173 | 1.7 | 5.2 | 0.00 | 0.00 | 0.00 | 30 | 915.1 |
| 20260505194735 | 70 | 184 | 1.7 | 6.1 | 0.00 | 0.00 | 0.00 | 30 | 915.1 |
| 20260505194631 | 70 | 160 | 1.7 | 6.1 | 0.00 | 0.00 | 0.00 | 30 | 915.1 |
| 20260505194525 | 70 | 182 | 2.6 | 6.1 | 0.00 | 0.00 | 0.00 | 30 | 915.2 |
| 20260505194421 | 70 | 163 | 2.6 | 6.1 | 0.00 | 0.00 | 0.00 | 30 | 915.2 |
| 20260505194315 | 70 | 146 | 1.7 | 6.1 | 0.00 | 0.00 | 0.00 | 30 | 915.1 |
| 20260505193734 | 70 | 117 | 1.7 | 6.1 | 0.00 | 0.00 | 0.00 | 29 | 915.1 |
| 20260505193630 | 70 | 90 | 0.9 | 6.1 | 0.00 | 0.00 | 0.00 | 29 | 915.2 |
| 20260505193526 | 71 | 53 | 0.9 | 6.1 | 0.00 | 0.00 | 0.00 | 29 | 915.2 |
| 20260505193424 | 71 | 42 | 0.9 | 6.1 | 0.00 | 0.00 | 0.00 | 30 | 915.2 |
| 20260505193322 | 71 | 17 | 0.9 | 6.1 | 0.00 | 0.00 | 0.00 | 30 | 915.2 |
| 20260505193217 | 70 | 150 | 0.9 | 6.1 | 0.00 | 0.00 | 0.00 | 30 | 915.2 |
| 20260505193110 | 70 | 73 | 0.9 | 6.1 | 0.00 | 0.00 | 0.00 | 31 | 915.2 |
| 20260505193003 | 70 | 202 | 0.9 | 6.1 | 0.00 | 0.00 | 0.00 | 30 | 915.2 |
| 20260505192855 | 70 | 181 | 0.9 | 6.1 | 0.00 | 0.00 | 0.00 | 30 | 915.2 |
| 20260505192751 | 70 | 138 | 0.9 | 11.3 | 0.00 | 0.00 | 0.00 | 31 | 915.2 |
| 20260505192646 | 69 | 135 | 0.9 | 11.3 | 0.00 | 0.00 | 0.00 | 30 | 915.3 |
| 20260505192539 | 69 | 192 | 0.9 | 11.3 | 0.00 | 0.00 | 0.00 | 30 | 915.3 |